USY5093 FNCT-SKRG

Flight info

Callsign USY5093
Flight time 11h 40m
Altitude 28000
Route APGAL DCT EPMES DCT AVIGI/N0496F300 DCT 13S000E 13S010W DCT SISET DCT 11S020W/N0502F320 08S030W DCT ASEVA UP527 MORVU/N0496F340 UP527 ILNUK/N0490F360 UP527 DADKA UM549 EDRAN DCT MQU A323 RENOS RENOS3B
Aircraft A346/H-SDE2E3FGHIJ3J4J5M1RWXY/LB1D1

Departure

Time 2026-05-08 14:04
Airport Catumbela Airport (FNCT)

Arrival

Time 2026-05-09 01:44
Airport Jose Maria Córdova International Airport (SKRG)
Time Latitude Longitude Altitude Speed Heading
2026-05-08 13:54 -12.49347 13.48892 27 ft 0 kts 99°
2026-05-08 13:58 -12.49346 13.48886 27 ft 0 kts 99°
2026-05-08 13:59 -12.49342 13.48861 27 ft 0 kts 99°
2026-05-08 13:59 -12.49337 13.48837 28 ft 0 kts 114°
2026-05-08 13:59 -12.49325 13.48825 25 ft 0 kts 155°
2026-05-08 13:59 -12.49306 13.48823 26 ft 0 kts 192°
2026-05-08 14:00 -12.49300 13.48825 26 ft 0 kts 194°
2026-05-08 14:01 -12.49350 13.48812 28 ft 16 kts 192°
2026-05-08 14:02 -12.49480 13.48789 28 ft 19 kts 188°
2026-05-08 14:02 -12.49567 13.48772 28 ft 10 kts 191°
2026-05-08 14:02 -12.49634 13.48710 28 ft 19 kts 266°
2026-05-08 14:02 -12.49619 13.48583 32 ft 17 kts 281°
2026-05-08 14:03 -12.49595 13.48476 35 ft 14 kts 287°
2026-05-08 14:03 -12.49518 13.48435 34 ft 15 kts
2026-05-08 14:03 -12.49324 13.48470 31 ft 55 kts 10°
2026-05-08 14:03 -12.48734 13.48577 28 ft 115 kts 11°
2026-05-08 14:04 -12.47770 13.48755 29 ft 164 kts
2026-05-08 14:04 -12.46516 13.48992 118 ft 193 kts
2026-05-08 14:04 -12.45190 13.49244 688 ft 195 kts
2026-05-08 14:04 -12.43837 13.49479 1239 ft 198 kts
2026-05-08 14:05 -12.42464 13.49423 1570 ft 200 kts 345°
2026-05-08 14:05 -12.41124 13.48847 1773 ft 208 kts 324°
2026-05-08 14:05 -12.40270 13.47655 1982 ft 217 kts 282°
2026-05-08 14:05 -12.40354 13.46095 2207 ft 229 kts 253°
2026-05-08 14:06 -12.40847 13.44495 2444 ft 243 kts 253°
2026-05-08 14:06 -12.41363 13.42788 2700 ft 257 kts 253°
2026-05-08 14:06 -12.41883 13.41020 2998 ft 268 kts 253°
2026-05-08 14:06 -12.42419 13.39165 3421 ft 274 kts 253°
2026-05-08 14:07 -12.42970 13.37245 3679 ft 287 kts 253°
2026-05-08 14:07 -12.43539 13.35252 4072 ft 294 kts 253°
2026-05-08 14:07 -12.44110 13.33242 4607 ft 296 kts 253°
2026-05-08 14:07 -12.44686 13.31208 5091 ft 298 kts 253°
2026-05-08 14:08 -12.45267 13.29154 5574 ft 301 kts 253°
2026-05-08 14:08 -12.45850 13.27090 6073 ft 302 kts 253°
2026-05-08 14:08 -12.46435 13.25017 6540 ft 304 kts 253°
2026-05-08 14:08 -12.47025 13.22930 6999 ft 306 kts 254°
2026-05-08 14:09 -12.47620 13.20822 7450 ft 308 kts 254°
2026-05-08 14:09 -12.48219 13.18697 7926 ft 309 kts 254°
2026-05-08 14:09 -12.48832 13.16522 8392 ft 311 kts 254°
2026-05-08 14:09 -12.49427 13.14412 8829 ft 313 kts 254°
2026-05-08 14:10 -12.50041 13.12232 9282 ft 315 kts 255°
2026-05-08 14:10 -12.50641 13.10098 9716 ft 317 kts 255°
2026-05-08 14:10 -12.51254 13.07920 10102 ft 319 kts 255°
2026-05-08 14:10 -12.51882 13.05685 10294 ft 330 kts 255°
2026-05-08 14:11 -12.52524 13.03394 10472 ft 339 kts 255°
2026-05-08 14:11 -12.53188 13.01030 10663 ft 349 kts 255°
2026-05-08 14:11 -12.53870 12.98600 10833 ft 359 kts 255°
2026-05-08 14:11 -12.54575 12.96089 11016 ft 369 kts 255°
2026-05-08 14:12 -12.55294 12.93525 11183 ft 379 kts 255°
2026-05-08 14:12 -12.56032 12.90897 11418 ft 387 kts 255°
2026-05-08 14:12 -12.56777 12.88239 11825 ft 388 kts 255°
2026-05-08 14:12 -12.57523 12.85584 12311 ft 388 kts 255°
2026-05-08 14:13 -12.58270 12.82917 12778 ft 389 kts 255°
2026-05-08 14:13 -12.59025 12.80227 13233 ft 390 kts 255°
2026-05-08 14:13 -12.59766 12.77582 13679 ft 391 kts 255°
2026-05-08 14:13 -12.60515 12.74904 14073 ft 393 kts 255°
2026-05-08 14:14 -12.61272 12.72198 14448 ft 395 kts 255°
2026-05-08 14:14 -12.62030 12.69485 14793 ft 397 kts 255°
2026-05-08 14:14 -12.62795 12.66752 15135 ft 399 kts 255°
2026-05-08 14:14 -12.63559 12.64017 15480 ft 400 kts 255°
2026-05-08 14:15 -12.64328 12.61264 15815 ft 403 kts 255°
2026-05-08 14:15 -12.65102 12.58493 16146 ft 405 kts 255°
2026-05-08 14:15 -12.65878 12.55714 16477 ft 407 kts 255°
2026-05-08 14:15 -12.66659 12.52911 16796 ft 409 kts 255°
2026-05-08 14:16 -12.67443 12.50102 17108 ft 411 kts 254°
2026-05-08 14:16 -12.68233 12.47271 17421 ft 413 kts 255°
2026-05-08 14:16 -12.69023 12.44434 17709 ft 415 kts 254°
2026-05-08 14:16 -12.69819 12.41577 17990 ft 418 kts 254°
2026-05-08 14:17 -12.70620 12.38702 18277 ft 420 kts 254°
2026-05-08 14:17 -12.71422 12.35819 18518 ft 422 kts 254°
2026-05-08 14:17 -12.72229 12.32921 18765 ft 423 kts 254°
2026-05-08 14:17 -12.73037 12.30015 19022 ft 424 kts 254°
2026-05-08 14:18 -12.73840 12.27126 19269 ft 426 kts 254°
2026-05-08 14:18 -12.74651 12.24208 19519 ft 427 kts 255°
2026-05-08 14:18 -12.75477 12.21236 19780 ft 429 kts 255°
2026-05-08 14:18 -12.76284 12.18325 20024 ft 430 kts 255°
2026-05-08 14:19 -12.77107 12.15357 20271 ft 432 kts 255°
2026-05-08 14:19 -12.77926 12.12404 20523 ft 433 kts 255°
2026-05-08 14:19 -12.78754 12.09419 20779 ft 434 kts 255°
2026-05-08 14:19 -12.79584 12.06423 21038 ft 436 kts 255°
2026-05-08 14:20 -12.80415 12.03421 21280 ft 437 kts 255°
2026-05-08 14:20 -12.80965 12.01434 21451 ft 438 kts 255°
2026-05-08 14:20 -12.81799 11.98420 21702 ft 439 kts 255°
2026-05-08 14:20 -12.82635 11.95398 21940 ft 440 kts 255°
2026-05-08 14:21 -12.83472 11.92368 22177 ft 442 kts 255°
2026-05-08 14:21 -12.84309 11.89338 22426 ft 443 kts 255°
2026-05-08 14:21 -12.85150 11.86292 22663 ft 444 kts 255°
2026-05-08 14:21 -12.85995 11.83232 22901 ft 445 kts 255°
2026-05-08 14:22 -12.86841 11.80165 23134 ft 447 kts 255°
2026-05-08 14:22 -12.87687 11.77099 23347 ft 448 kts 255°
2026-05-08 14:22 -12.88539 11.74007 23572 ft 449 kts 255°
2026-05-08 14:22 -12.89390 11.70920 23770 ft 450 kts 255°
2026-05-08 14:23 -12.90242 11.67824 23956 ft 451 kts 255°
2026-05-08 14:23 -12.91094 11.64726 24172 ft 451 kts 255°
2026-05-08 14:23 -12.91939 11.61657 24362 ft 452 kts 255°
2026-05-08 14:23 -12.92794 11.58547 24556 ft 453 kts 255°
2026-05-08 14:24 -12.93650 11.55433 24751 ft 453 kts 255°
2026-05-08 14:24 -12.94512 11.52296 24947 ft 454 kts 255°
2026-05-08 14:24 -12.95370 11.49173 25135 ft 455 kts 255°
2026-05-08 14:24 -12.96232 11.46035 25324 ft 456 kts 255°
2026-05-08 14:25 -12.97090 11.42910 25507 ft 457 kts 255°
2026-05-08 14:25 -12.97966 11.39714 25694 ft 457 kts 255°
2026-05-08 14:25 -12.98799 11.36600 25865 ft 458 kts 257°
2026-05-08 14:25 -12.99398 11.33390 26031 ft 459 kts 263°
2026-05-08 14:26 -12.99682 11.30121 26191 ft 459 kts 268°
2026-05-08 14:26 -12.99648 11.26842 26375 ft 460 kts 272°
2026-05-08 14:26 -12.99457 11.23558 26548 ft 461 kts 274°
2026-05-08 14:26 -12.99240 11.20283 26713 ft 461 kts 274°
2026-05-08 14:27 -12.99018 11.16990 26876 ft 462 kts 274°
2026-05-08 14:27 -12.98797 11.13689 27033 ft 463 kts 274°
2026-05-08 14:27 -12.98578 11.10381 27189 ft 464 kts 274°
2026-05-08 14:27 -12.98361 11.07064 27349 ft 465 kts 274°
2026-05-08 14:28 -12.98144 11.03750 27503 ft 466 kts 274°
2026-05-08 14:28 -12.97930 11.00467 27685 ft 466 kts 274°
2026-05-08 14:28 -12.97712 10.97120 27920 ft 465 kts 274°
2026-05-08 14:28 -12.97499 10.93851 28149 ft 463 kts 274°
2026-05-08 14:29 -12.97283 10.90543 28334 ft 463 kts 274°
2026-05-08 14:29 -12.97068 10.87246 28478 ft 464 kts 274°
2026-05-08 14:29 -12.96851 10.83936 28624 ft 465 kts 274°
2026-05-08 14:29 -12.96634 10.80624 28776 ft 465 kts 274°
2026-05-08 14:30 -12.96415 10.77291 28924 ft 466 kts 274°
2026-05-08 14:30 -12.96197 10.73982 29071 ft 466 kts 274°
2026-05-08 14:30 -12.95977 10.70651 29216 ft 467 kts 274°
2026-05-08 14:30 -12.95758 10.67326 29363 ft 467 kts 274°
2026-05-08 14:31 -12.95538 10.63998 29497 ft 467 kts 274°
2026-05-08 14:31 -12.95316 10.60665 29635 ft 468 kts 274°
2026-05-08 14:31 -12.95093 10.57311 29758 ft 468 kts 274°
2026-05-08 14:32 -12.94648 10.50634 29932 ft 470 kts 273°
2026-05-08 14:32 -12.94428 10.47338 29932 ft 470 kts 274°
2026-05-08 14:32 -12.93979 10.40636 29932 ft 470 kts 274°
2026-05-08 14:33 -12.93529 10.33940 29929 ft 470 kts 274°
2026-05-08 14:33 -12.93077 10.27243 29935 ft 470 kts 274°
2026-05-08 14:34 -12.92623 10.20543 29934 ft 470 kts 274°
2026-05-08 14:34 -12.92166 10.13833 29938 ft 470 kts 274°
2026-05-08 14:35 -12.91709 10.07140 29932 ft 471 kts 274°
2026-05-08 14:35 -12.91249 10.00433 29933 ft 471 kts 274°
2026-05-08 14:36 -12.90788 9.93728 29937 ft 471 kts 274°
2026-05-08 14:36 -12.90326 9.87048 29939 ft 471 kts 274°
2026-05-08 14:37 -12.89861 9.80337 29938 ft 471 kts 274°
2026-05-08 14:37 -12.89394 9.73625 29939 ft 471 kts 274°
2026-05-08 14:38 -12.88924 9.66907 29940 ft 471 kts 274°
2026-05-08 14:38 -12.88454 9.60194 29939 ft 472 kts 274°
2026-05-08 14:39 -12.87982 9.53486 29940 ft 472 kts 274°
2026-05-08 14:39 -12.87507 9.46763 29939 ft 472 kts 274°
2026-05-08 14:40 -12.87034 9.40085 29941 ft 472 kts 274°
2026-05-08 14:40 -12.86555 9.33349 29941 ft 472 kts 274°
2026-05-08 14:41 -12.86074 9.26617 29942 ft 473 kts 274°
2026-05-08 14:41 -12.85592 9.19889 29937 ft 473 kts 274°
2026-05-08 14:42 -12.85110 9.13185 29944 ft 473 kts 274°
2026-05-08 14:42 -12.84622 9.06431 29941 ft 473 kts 274°
2026-05-08 14:43 -12.84133 8.99671 29947 ft 474 kts 274°
2026-05-08 14:43 -12.83643 8.92926 29946 ft 474 kts 274°
2026-05-08 14:44 -12.83152 8.86187 29949 ft 474 kts 274°
2026-05-08 14:44 -12.82657 8.79416 29944 ft 474 kts 274°
2026-05-08 14:45 -12.82159 8.72631 29945 ft 475 kts 274°
2026-05-08 14:45 -12.81661 8.65876 29946 ft 475 kts 274°
2026-05-08 14:46 -12.81161 8.59113 29940 ft 475 kts 274°
2026-05-08 14:46 -12.80657 8.52322 29949 ft 475 kts 274°
2026-05-08 14:47 -12.80153 8.45560 29947 ft 475 kts 274°
2026-05-08 14:47 -12.79649 8.38827 29943 ft 475 kts 274°
2026-05-08 14:48 -12.79139 8.32035 29945 ft 476 kts 274°
2026-05-08 14:48 -12.78628 8.25245 29943 ft 476 kts 274°
2026-05-08 14:49 -12.78114 8.18449 29949 ft 476 kts 274°
2026-05-08 14:49 -12.77603 8.11713 29949 ft 477 kts 274°
2026-05-08 14:50 -12.77088 8.04933 29943 ft 477 kts 274°
2026-05-08 14:50 -12.76570 7.98146 29947 ft 477 kts 274°
2026-05-08 14:51 -12.76050 7.91362 29950 ft 477 kts 274°
2026-05-08 14:51 -12.75528 7.84552 29951 ft 477 kts 274°
2026-05-08 14:52 -12.74741 7.74363 29952 ft 478 kts 273°
2026-05-08 14:53 -12.74214 7.67555 29947 ft 478 kts 273°
2026-05-08 14:53 -12.73685 7.60747 29950 ft 478 kts 273°
2026-05-08 14:54 -12.73156 7.53961 29952 ft 478 kts 273°
2026-05-08 14:54 -12.72623 7.47152 29953 ft 478 kts 273°
2026-05-08 14:55 -12.72088 7.40332 29953 ft 478 kts 273°
2026-05-08 14:55 -12.71551 7.33526 29955 ft 479 kts 273°
2026-05-08 14:56 -12.71013 7.26715 29954 ft 479 kts 273°
2026-05-08 14:56 -12.70475 7.19929 29955 ft 479 kts 273°
2026-05-08 14:57 -12.69933 7.13113 29957 ft 479 kts 273°
2026-05-08 14:57 -12.69390 7.06305 29956 ft 479 kts 273°
2026-05-08 14:58 -12.68844 6.99490 29954 ft 479 kts 273°
2026-05-08 14:58 -12.68299 6.92702 29957 ft 479 kts 273°
2026-05-08 14:59 -12.67749 6.85871 29962 ft 479 kts 273°
2026-05-08 14:59 -12.66921 6.75635 29959 ft 479 kts 273°
2026-05-08 15:00 -12.66369 6.68828 29959 ft 479 kts 273°
2026-05-08 15:00 -12.65814 6.62018 29955 ft 479 kts 273°
2026-05-08 15:01 -12.65258 6.55221 29960 ft 479 kts 273°
2026-05-08 15:01 -12.64701 6.48415 29972 ft 479 kts 273°
2026-05-08 15:02 -12.64140 6.41598 29962 ft 480 kts 273°
2026-05-08 15:02 -12.63570 6.34686 29963 ft 480 kts 273°
2026-05-08 15:03 -12.63001 6.27807 29964 ft 480 kts 273°
2026-05-08 15:03 -12.62435 6.20996 29965 ft 480 kts 273°
2026-05-08 15:04 -12.61865 6.14152 29965 ft 480 kts 273°
2026-05-08 15:04 -12.61294 6.07311 29964 ft 480 kts 273°
2026-05-08 15:05 -12.60721 6.00476 29967 ft 480 kts 273°
2026-05-08 15:05 -12.60148 5.93653 29965 ft 480 kts 273°
2026-05-08 15:06 -12.59571 5.86807 29965 ft 480 kts 273°
2026-05-08 15:06 -12.58992 5.79959 29970 ft 480 kts 273°
2026-05-08 15:07 -12.58417 5.73181 29969 ft 480 kts 273°
2026-05-08 15:07 -12.57833 5.66322 29969 ft 480 kts 273°
2026-05-08 15:08 -12.57349 5.60639 29971 ft 480 kts 272°
2026-05-08 15:08 -12.56668 5.52686 29969 ft 480 kts 272°
2026-05-08 15:09 -12.56176 5.46952 29973 ft 480 kts 272°
2026-05-08 15:09 -12.55590 5.40145 29975 ft 481 kts 272°
2026-05-08 15:10 -12.55000 5.33303 29970 ft 481 kts 272°
2026-05-08 15:10 -12.54406 5.26448 29972 ft 481 kts 272°
2026-05-08 15:11 -12.53812 5.19603 29970 ft 481 kts 272°
2026-05-08 15:11 -12.53220 5.12807 29975 ft 481 kts 272°
2026-05-08 15:12 -12.52618 5.05908 29976 ft 481 kts 272°
2026-05-08 15:12 -12.52019 4.99071 29973 ft 482 kts 272°
2026-05-08 15:13 -12.51417 4.92214 29972 ft 482 kts 272°
2026-05-08 15:13 -12.50817 4.85396 29971 ft 482 kts 272°
2026-05-08 15:14 -12.50207 4.78495 29975 ft 482 kts 272°
2026-05-08 15:14 -12.49603 4.71667 29980 ft 482 kts 272°
2026-05-08 15:15 -12.48993 4.64805 29975 ft 482 kts 272°
2026-05-08 15:15 -12.48383 4.57941 29979 ft 483 kts 272°
2026-05-08 15:16 -12.47771 4.51070 29978 ft 483 kts 272°
2026-05-08 15:16 -12.47155 4.44189 29978 ft 483 kts 272°
2026-05-08 15:17 -12.46672 4.37308 29979 ft 482 kts 269°
2026-05-08 15:17 -12.46809 4.30435 29979 ft 480 kts 263°
2026-05-08 15:18 -12.47568 4.23600 29976 ft 479 kts 260°
2026-05-08 15:18 -12.48468 4.16816 29980 ft 480 kts 260°
2026-05-08 15:19 -12.49365 4.10040 29979 ft 480 kts 260°
2026-05-08 15:19 -12.50260 4.03239 29982 ft 480 kts 260°
2026-05-08 15:20 -12.51147 3.96472 29985 ft 480 kts 260°
2026-05-08 15:20 -12.52036 3.89670 29985 ft 481 kts 260°
2026-05-08 15:21 -12.52925 3.82849 29988 ft 481 kts 260°
2026-05-08 15:21 -12.53815 3.76009 29988 ft 481 kts 260°
2026-05-08 15:22 -12.54700 3.69189 29987 ft 482 kts 260°
2026-05-08 15:22 -12.55585 3.62362 29984 ft 482 kts 260°
2026-05-08 15:23 -12.56468 3.55540 29988 ft 482 kts 260°
2026-05-08 15:23 -12.57351 3.48699 29988 ft 482 kts 260°
2026-05-08 15:24 -12.58227 3.41905 29988 ft 482 kts 260°
2026-05-08 15:24 -12.59117 3.34987 29990 ft 482 kts 260°
2026-05-08 15:25 -12.59990 3.28180 29991 ft 483 kts 260°
2026-05-08 15:25 -12.60865 3.21343 29995 ft 483 kts 260°
2026-05-08 15:26 -12.61742 3.14482 29994 ft 483 kts 260°
2026-05-08 15:26 -12.62619 3.07603 29996 ft 483 kts 260°
2026-05-08 15:27 -12.63488 3.00776 29999 ft 484 kts 260°
2026-05-08 15:27 -12.64361 2.93899 29995 ft 484 kts 260°
2026-05-08 15:28 -12.65231 2.87034 29998 ft 484 kts 260°
2026-05-08 15:28 -12.66102 2.80151 30001 ft 485 kts 260°
2026-05-08 15:29 -12.66970 2.73272 30000 ft 485 kts 260°
2026-05-08 15:29 -12.67831 2.66439 29998 ft 485 kts 260°
2026-05-08 15:30 -12.68699 2.59526 29997 ft 485 kts 260°
2026-05-08 15:30 -12.69561 2.52653 29999 ft 486 kts 260°
2026-05-08 15:31 -12.70425 2.45753 30003 ft 486 kts 260°
2026-05-08 15:31 -12.71288 2.38841 30002 ft 486 kts 260°
2026-05-08 15:32 -12.72146 2.31953 30002 ft 487 kts 260°
2026-05-08 15:32 -12.73007 2.25032 30006 ft 487 kts 260°
2026-05-08 15:33 -12.73865 2.18118 30002 ft 487 kts 260°
2026-05-08 15:33 -12.74724 2.11174 30000 ft 487 kts 260°
2026-05-08 15:34 -12.75574 2.04299 29999 ft 488 kts 260°
2026-05-08 15:34 -12.76433 1.97330 30000 ft 488 kts 260°
2026-05-08 15:35 -12.77285 1.90401 30004 ft 488 kts 260°
2026-05-08 15:35 -12.78134 1.83483 29999 ft 489 kts 260°
2026-05-08 15:36 -12.78849 1.77648 29998 ft 489 kts 260°
2026-05-08 15:36 -12.79837 1.69567 30000 ft 489 kts 260°
2026-05-08 15:37 -12.80684 1.62614 30002 ft 489 kts 260°
2026-05-08 15:37 -12.81530 1.55663 30001 ft 489 kts 260°
2026-05-08 15:38 -12.82375 1.48703 30000 ft 490 kts 260°
2026-05-08 15:38 -12.83212 1.41788 29999 ft 490 kts 261°
2026-05-08 15:39 -12.84059 1.34786 30001 ft 490 kts 261°
2026-05-08 15:39 -12.84892 1.27874 30003 ft 490 kts 261°
2026-05-08 15:40 -12.85730 1.20910 30005 ft 490 kts 261°
2026-05-08 15:40 -12.86567 1.13939 30004 ft 490 kts 261°
2026-05-08 15:41 -12.87401 1.06969 30006 ft 490 kts 261°
2026-05-08 15:41 -12.88234 0.99998 30004 ft 490 kts 261°
2026-05-08 15:42 -12.89065 0.93029 30010 ft 490 kts 261°
2026-05-08 15:42 -12.89894 0.86055 30006 ft 490 kts 261°
2026-05-08 15:43 -12.90721 0.79091 30005 ft 490 kts 261°
2026-05-08 15:43 -12.91541 0.72161 30007 ft 490 kts 261°
2026-05-08 15:44 -12.92368 0.65158 30005 ft 490 kts 261°
2026-05-08 15:44 -12.93180 0.58271 30006 ft 490 kts 261°
2026-05-08 15:45 -12.93998 0.51317 30006 ft 490 kts 261°
2026-05-08 15:45 -12.94813 0.44373 30007 ft 490 kts 261°
2026-05-08 15:46 -12.95627 0.37419 30009 ft 490 kts 261°
2026-05-08 15:46 -12.96439 0.30477 30007 ft 490 kts 261°
2026-05-08 15:47 -12.97248 0.23532 30006 ft 490 kts 261°
2026-05-08 15:47 -12.98058 0.16573 30006 ft 490 kts 261°
2026-05-08 15:48 -12.99269 0.06150 30006 ft 490 kts 261°
2026-05-08 15:49 -12.99948 -0.00781 30013 ft 491 kts 264°
2026-05-08 15:49 -13.00139 -0.07813 30011 ft 492 kts 266°
2026-05-08 15:50 -13.00260 -0.14839 30009 ft 492 kts 266°
2026-05-08 15:50 -13.00384 -0.21872 30009 ft 492 kts 266°
2026-05-08 15:51 -13.00509 -0.28886 30009 ft 492 kts 266°
2026-05-08 15:51 -13.00634 -0.35927 30010 ft 491 kts 266°
2026-05-08 15:52 -13.00757 -0.42901 30011 ft 491 kts 266°
2026-05-08 15:52 -13.00879 -0.49906 30014 ft 491 kts 266°
2026-05-08 15:53 -13.00999 -0.56913 30011 ft 491 kts 266°
2026-05-08 15:53 -13.01117 -0.63924 30014 ft 491 kts 266°
2026-05-08 15:54 -13.01233 -0.70925 30011 ft 490 kts 266°
2026-05-08 15:54 -13.01347 -0.77934 30011 ft 491 kts 266°
2026-05-08 15:55 -13.01462 -0.85015 30170 ft 496 kts 266°
2026-05-08 15:55 -13.01574 -0.92038 30591 ft 493 kts 267°
2026-05-08 15:55 -13.01615 -0.94571 30745 ft 492 kts 267°
2026-05-08 15:56 -13.01670 -0.98117 30965 ft 490 kts 267°
2026-05-08 15:56 -13.01729 -1.01878 31201 ft 489 kts 268°
2026-05-08 15:56 -13.01799 -1.06504 31474 ft 487 kts 268°
2026-05-08 15:56 -13.01834 -1.08844 31619 ft 486 kts 268°
2026-05-08 15:57 -13.01886 -1.12320 31825 ft 485 kts 268°
2026-05-08 15:57 -13.01938 -1.15788 31998 ft 484 kts 268°
2026-05-08 15:57 -13.02036 -1.22655 32009 ft 483 kts 268°
2026-05-08 15:58 -13.02134 -1.29562 32015 ft 483 kts 268°
2026-05-08 15:58 -13.02230 -1.36483 32017 ft 483 kts 268°
2026-05-08 15:59 -13.02325 -1.43389 32013 ft 483 kts 268°
2026-05-08 15:59 -13.02419 -1.50289 32013 ft 483 kts 268°
2026-05-08 16:00 -13.02510 -1.57161 32017 ft 483 kts 268°
2026-05-08 16:00 -13.02600 -1.64066 32013 ft 483 kts 268°
2026-05-08 16:01 -13.02689 -1.70962 32012 ft 483 kts 268°
2026-05-08 16:01 -13.02776 -1.77864 32016 ft 483 kts 268°
2026-05-08 16:02 -13.02861 -1.84726 32015 ft 483 kts 268°
2026-05-08 16:02 -13.02944 -1.91631 32017 ft 483 kts 268°
2026-05-08 16:03 -13.03025 -1.98533 32014 ft 483 kts 268°
2026-05-08 16:03 -13.03104 -2.05441 32014 ft 483 kts 268°
2026-05-08 16:04 -13.03180 -2.12307 32015 ft 483 kts 268°
2026-05-08 16:04 -13.03256 -2.19210 32015 ft 483 kts 268°
2026-05-08 16:05 -13.03329 -2.26120 32013 ft 483 kts 268°
2026-05-08 16:05 -13.03401 -2.33026 32015 ft 483 kts 268°
2026-05-08 16:06 -13.03471 -2.39947 32015 ft 483 kts 268°
2026-05-08 16:06 -13.03539 -2.46841 32016 ft 483 kts 268°
2026-05-08 16:07 -13.03604 -2.53698 32016 ft 483 kts 268°
2026-05-08 16:07 -13.03669 -2.60605 32016 ft 483 kts 268°
2026-05-08 16:08 -13.03731 -2.67513 32015 ft 483 kts 268°
2026-05-08 16:08 -13.03792 -2.74435 32013 ft 483 kts 268°
2026-05-08 16:09 -13.03851 -2.81342 32016 ft 483 kts 268°
2026-05-08 16:09 -13.03908 -2.88248 32014 ft 483 kts 268°
2026-05-08 16:10 -13.03963 -2.95116 32017 ft 483 kts 268°
2026-05-08 16:10 -13.04016 -3.02036 32017 ft 483 kts 269°
2026-05-08 16:11 -13.04068 -3.08944 32015 ft 483 kts 269°
2026-05-08 16:11 -13.04117 -3.15858 32015 ft 483 kts 269°
2026-05-08 16:12 -13.04165 -3.22713 32016 ft 483 kts 269°
2026-05-08 16:12 -13.04210 -3.29627 32014 ft 483 kts 269°
2026-05-08 16:13 -13.04254 -3.36545 32015 ft 483 kts 269°
2026-05-08 16:13 -13.04296 -3.43456 32016 ft 483 kts 269°
2026-05-08 16:14 -13.04337 -3.50358 32015 ft 484 kts 269°
2026-05-08 16:14 -13.04376 -3.57261 32014 ft 484 kts 269°
2026-05-08 16:15 -13.04413 -3.64174 32015 ft 483 kts 269°
2026-05-08 16:15 -13.04449 -3.71077 32014 ft 484 kts 269°
2026-05-08 16:16 -13.04482 -3.77949 32018 ft 484 kts 269°
2026-05-08 16:16 -13.04513 -3.84862 32019 ft 483 kts 269°
2026-05-08 16:17 -13.04538 -3.90646 32017 ft 484 kts 269°
2026-05-08 16:17 -13.04571 -3.98681 32018 ft 484 kts 269°
2026-05-08 16:18 -13.04597 -4.05600 32016 ft 484 kts 269°
2026-05-08 16:18 -13.04621 -4.12518 32017 ft 484 kts 269°
2026-05-08 16:19 -13.04643 -4.19370 32017 ft 484 kts 269°
2026-05-08 16:19 -13.04663 -4.26299 32018 ft 484 kts 269°
2026-05-08 16:20 -13.04682 -4.33219 32017 ft 484 kts 269°
2026-05-08 16:20 -13.04699 -4.40127 32018 ft 484 kts 269°
2026-05-08 16:21 -13.04714 -4.46997 32018 ft 484 kts 269°
2026-05-08 16:21 -13.04727 -4.53909 32016 ft 484 kts 269°
2026-05-08 16:22 -13.04738 -4.60830 32017 ft 483 kts 269°
2026-05-08 16:22 -13.04747 -4.67736 32017 ft 483 kts 269°
2026-05-08 16:23 -13.04755 -4.74653 32017 ft 483 kts 269°
2026-05-08 16:23 -13.04761 -4.81558 32017 ft 483 kts 269°
2026-05-08 16:24 -13.04765 -4.88426 32017 ft 483 kts 269°
2026-05-08 16:24 -13.04767 -4.95330 32017 ft 483 kts 269°
2026-05-08 16:25 -13.04767 -5.02234 32017 ft 483 kts 269°
2026-05-08 16:25 -13.04765 -5.09146 32015 ft 483 kts 269°
2026-05-08 16:26 -13.04762 -5.16041 32016 ft 483 kts 269°
2026-05-08 16:26 -13.04757 -5.22945 32016 ft 483 kts 269°
2026-05-08 16:27 -13.04750 -5.29846 32016 ft 483 kts 269°
2026-05-08 16:27 -13.04741 -5.36759 32018 ft 483 kts 269°
2026-05-08 16:28 -13.04731 -5.43612 32015 ft 483 kts 269°
2026-05-08 16:28 -13.04718 -5.50520 32016 ft 483 kts 269°
2026-05-08 16:29 -13.04704 -5.57430 32015 ft 483 kts 269°
2026-05-08 16:29 -13.04687 -5.64327 32015 ft 483 kts 269°
2026-05-08 16:30 -13.04670 -5.71204 32012 ft 483 kts 269°
2026-05-08 16:30 -13.04650 -5.78107 32013 ft 483 kts 269°
2026-05-08 16:31 -13.04628 -5.85025 32012 ft 483 kts 269°
2026-05-08 16:31 -13.04605 -5.91925 32012 ft 483 kts 269°
2026-05-08 16:32 -13.04579 -5.98831 32014 ft 482 kts 269°
2026-05-08 16:32 -13.04552 -6.05738 32013 ft 482 kts 269°
2026-05-08 16:33 -13.04523 -6.12590 32013 ft 482 kts 269°
2026-05-08 16:33 -13.04493 -6.19491 32012 ft 482 kts 269°
2026-05-08 16:34 -13.04460 -6.26389 32014 ft 482 kts 269°
2026-05-08 16:34 -13.04426 -6.33284 32012 ft 482 kts 269°
2026-05-08 16:35 -13.04389 -6.40180 32011 ft 482 kts 269°
2026-05-08 16:35 -13.04352 -6.47081 32013 ft 482 kts 270°
2026-05-08 16:36 -13.04312 -6.53973 32012 ft 482 kts 270°
2026-05-08 16:36 -13.04270 -6.60858 32012 ft 482 kts 270°
2026-05-08 16:37 -13.04226 -6.67745 32011 ft 482 kts 270°
2026-05-08 16:37 -13.04182 -6.74598 32012 ft 482 kts 270°
2026-05-08 16:38 -13.04134 -6.81500 32012 ft 482 kts 270°
2026-05-08 16:38 -13.04085 -6.88399 32011 ft 482 kts 270°
2026-05-08 16:39 -13.04034 -6.95291 32013 ft 482 kts 270°
2026-05-08 16:39 -13.03981 -7.02128 32013 ft 482 kts 270°
2026-05-08 16:40 -13.03925 -7.09159 32013 ft 482 kts 270°
2026-05-08 16:40 -13.03869 -7.16077 32012 ft 482 kts 270°
2026-05-08 16:41 -13.03810 -7.23081 32013 ft 482 kts 270°
2026-05-08 16:42 -13.03730 -7.32284 32013 ft 482 kts 270°
2026-05-08 16:42 -13.03668 -7.39169 32013 ft 482 kts 270°
2026-05-08 16:43 -13.03604 -7.46056 32012 ft 482 kts 270°
2026-05-08 16:43 -13.03537 -7.52942 32011 ft 481 kts 270°
2026-05-08 16:44 -13.03468 -7.59829 31989 ft 481 kts 270°
2026-05-08 16:44 -13.03403 -7.66740 32006 ft 485 kts 270°
2026-05-08 16:45 -13.03331 -7.73616 32009 ft 485 kts 271°
2026-05-08 16:45 -13.03256 -7.80548 32010 ft 485 kts 271°
2026-05-08 16:46 -13.03180 -7.87478 32013 ft 485 kts 271°
2026-05-08 16:46 -13.03103 -7.94433 32012 ft 485 kts 271°
2026-05-08 16:47 -13.03023 -8.01367 32015 ft 485 kts 271°
2026-05-08 16:47 -13.02942 -8.08293 32012 ft 485 kts 271°
2026-05-08 16:48 -13.02860 -8.15187 32011 ft 485 kts 271°
2026-05-08 16:48 -13.02775 -8.22124 32012 ft 485 kts 271°
2026-05-08 16:49 -13.02688 -8.29070 32010 ft 485 kts 271°
2026-05-08 16:49 -13.02599 -8.36004 32013 ft 485 kts 271°
2026-05-08 16:50 -13.02507 -8.42932 32012 ft 485 kts 271°
2026-05-08 16:50 -13.02414 -8.49855 32013 ft 485 kts 271°
2026-05-08 16:51 -13.02319 -8.56749 32010 ft 485 kts 271°
2026-05-08 16:51 -13.02223 -8.63691 32012 ft 485 kts 271°
2026-05-08 16:52 -13.02125 -8.70626 32012 ft 485 kts 271°
2026-05-08 16:52 -13.02025 -8.77542 32012 ft 485 kts 271°
2026-05-08 16:53 -13.01872 -8.87935 32012 ft 485 kts 271°
2026-05-08 16:53 -13.01770 -8.94814 32012 ft 484 kts 271°
2026-05-08 16:54 -13.01665 -9.01757 32011 ft 485 kts 271°
2026-05-08 16:54 -13.01559 -9.08690 32011 ft 485 kts 271°
2026-05-08 16:55 -13.01450 -9.15627 32013 ft 485 kts 271°
2026-05-08 16:55 -13.01340 -9.22513 32012 ft 485 kts 271°
2026-05-08 16:56 -13.01227 -9.29443 32014 ft 485 kts 271°
2026-05-08 16:56 -13.01112 -9.36373 32009 ft 485 kts 271°
2026-05-08 16:57 -13.00995 -9.43301 32009 ft 485 kts 271°
2026-05-08 16:57 -13.00877 -9.50237 32009 ft 485 kts 271°
2026-05-08 16:58 -13.00757 -9.57163 32008 ft 485 kts 271°
2026-05-08 16:58 -13.00635 -9.64090 32010 ft 485 kts 271°
2026-05-08 16:59 -13.00512 -9.70975 32008 ft 485 kts 271°
2026-05-08 16:59 -13.00387 -9.77913 32011 ft 485 kts 271°
2026-05-08 17:00 -13.00260 -9.84859 32008 ft 485 kts 271°
2026-05-08 17:00 -13.00134 -9.91758 32010 ft 485 kts 271°
2026-05-08 17:01 -13.00012 -9.98688 32009 ft 485 kts 271°
2026-05-08 17:01 -13.00230 -10.05625 32009 ft 486 kts 268°
2026-05-08 17:02 -13.00561 -10.12573 32013 ft 486 kts 268°
2026-05-08 17:02 -13.00891 -10.19512 32009 ft 486 kts 268°
2026-05-08 17:03 -13.01217 -10.26459 32014 ft 487 kts 268°
2026-05-08 17:03 -13.01540 -10.33369 32014 ft 487 kts 268°
2026-05-08 17:04 -13.01861 -10.40317 32010 ft 487 kts 268°
2026-05-08 17:04 -13.02181 -10.47281 32011 ft 487 kts 268°
2026-05-08 17:05 -13.02497 -10.54193 32012 ft 487 kts 268°
2026-05-08 17:05 -13.02813 -10.61152 32010 ft 487 kts 268°
2026-05-08 17:06 -13.03127 -10.68109 32013 ft 487 kts 268°
2026-05-08 17:06 -13.03439 -10.75076 32011 ft 487 kts 268°
2026-05-08 17:07 -13.03749 -10.82039 32013 ft 487 kts 268°
2026-05-08 17:07 -13.04058 -10.89001 32012 ft 487 kts 268°
2026-05-08 17:08 -13.04366 -10.95966 32014 ft 487 kts 268°
2026-05-08 17:08 -13.04669 -11.02886 32011 ft 488 kts 268°
2026-05-08 17:09 -13.04973 -11.09845 32010 ft 488 kts 268°
2026-05-08 17:09 -13.05276 -11.16832 32013 ft 488 kts 268°
2026-05-08 17:10 -13.05577 -11.23831 32011 ft 488 kts 268°
2026-05-08 17:10 -13.05875 -11.30793 32015 ft 487 kts 268°
2026-05-08 17:11 -13.06170 -11.37767 32002 ft 488 kts 268°
2026-05-08 17:11 -13.06465 -11.44737 32006 ft 488 kts 268°
2026-05-08 17:12 -13.06757 -11.51698 32006 ft 488 kts 268°
2026-05-08 17:12 -13.07046 -11.58625 32019 ft 490 kts 268°
2026-05-08 17:13 -13.07192 -11.62135 32236 ft 489 kts 268°
2026-05-08 17:13 -13.07337 -11.65604 32594 ft 485 kts 269°
2026-05-08 17:13 -13.07480 -11.69066 32927 ft 482 kts 269°
2026-05-08 17:13 -13.07621 -11.72504 33193 ft 480 kts 269°
2026-05-08 17:14 -13.07760 -11.75925 33413 ft 480 kts 269°
2026-05-08 17:14 -13.07900 -11.79352 33632 ft 479 kts 269°
2026-05-08 17:14 -13.08039 -11.82775 33855 ft 478 kts 269°
2026-05-08 17:14 -13.08177 -11.86192 33999 ft 478 kts 269°
2026-05-08 17:15 -13.08452 -11.93015 34001 ft 477 kts 269°
2026-05-08 17:15 -13.08727 -11.99874 34002 ft 477 kts 269°
2026-05-08 17:16 -13.08997 -12.06658 34001 ft 477 kts 269°
2026-05-08 17:16 -13.09267 -12.13486 34011 ft 477 kts 269°
2026-05-08 17:17 -13.09535 -12.20296 34005 ft 476 kts 269°
2026-05-08 17:17 -13.09800 -12.27108 34003 ft 476 kts 269°
2026-05-08 17:18 -13.10064 -12.33891 34005 ft 476 kts 269°
2026-05-08 17:18 -13.10326 -12.40717 34007 ft 476 kts 269°
2026-05-08 17:19 -13.10588 -12.47554 34010 ft 476 kts 269°
2026-05-08 17:19 -13.10846 -12.54314 34007 ft 476 kts 269°
2026-05-08 17:20 -13.11103 -12.61127 34006 ft 476 kts 269°
2026-05-08 17:20 -13.11358 -12.67944 34006 ft 476 kts 269°
2026-05-08 17:21 -13.11612 -12.74750 34009 ft 476 kts 269°
2026-05-08 17:21 -13.11863 -12.81509 34004 ft 476 kts 269°
2026-05-08 17:22 -13.12115 -12.88322 34007 ft 476 kts 269°
2026-05-08 17:22 -13.12356 -12.95111 34003 ft 475 kts 270°
2026-05-08 17:23 -13.12178 -13.01908 34020 ft 474 kts 276°
2026-05-08 17:23 -13.11330 -13.08624 34004 ft 473 kts 281°
2026-05-08 17:24 -13.09821 -13.15217 34008 ft 473 kts 287°
2026-05-08 17:24 -13.07936 -13.21689 34017 ft 472 kts 287°
2026-05-08 17:25 -13.06039 -13.28162 34002 ft 472 kts 287°
2026-05-08 17:25 -13.04158 -13.34587 34004 ft 472 kts 287°
2026-05-08 17:26 -13.02264 -13.41054 34007 ft 472 kts 287°
2026-05-08 17:26 -13.00367 -13.47532 34005 ft 472 kts 288°
2026-05-08 17:27 -12.98466 -13.54017 34014 ft 472 kts 288°
2026-05-08 17:27 -12.96566 -13.60493 34003 ft 472 kts 288°
2026-05-08 17:28 -12.94676 -13.66927 34006 ft 472 kts 288°
2026-05-08 17:28 -12.92776 -13.73391 34006 ft 473 kts 288°
2026-05-08 17:29 -12.90870 -13.79868 34004 ft 473 kts 288°
2026-05-08 17:29 -12.89288 -13.85238 34004 ft 473 kts 288°
2026-05-08 17:30 -12.87375 -13.91729 34003 ft 473 kts 288°
2026-05-08 17:30 -12.85464 -13.98206 34000 ft 473 kts 288°
2026-05-08 17:31 -12.83554 -14.04669 33999 ft 473 kts 288°
2026-05-08 17:31 -12.81655 -14.11092 33998 ft 473 kts 288°
2026-05-08 17:32 -12.79738 -14.17570 34000 ft 473 kts 288°
2026-05-08 17:32 -12.77817 -14.24050 34002 ft 473 kts 288°
2026-05-08 17:33 -12.75910 -14.30480 34000 ft 473 kts 288°
2026-05-08 17:33 -12.73994 -14.36936 33995 ft 473 kts 288°
2026-05-08 17:34 -12.72073 -14.43398 33995 ft 473 kts 288°
2026-05-08 17:34 -12.70152 -14.49859 33997 ft 473 kts 288°
2026-05-08 17:35 -12.68230 -14.56317 33996 ft 473 kts 288°
2026-05-08 17:35 -12.66300 -14.62793 33995 ft 473 kts 288°
2026-05-08 17:36 -12.64378 -14.69241 34013 ft 473 kts 288°
2026-05-08 17:36 -12.62459 -14.75667 33993 ft 473 kts 288°
2026-05-08 17:37 -12.60497 -14.82233 34003 ft 473 kts 288°
2026-05-08 17:37 -12.58560 -14.88712 34006 ft 473 kts 288°
2026-05-08 17:38 -12.56625 -14.95173 33990 ft 473 kts 288°
2026-05-08 17:38 -12.54701 -15.01593 33993 ft 473 kts 288°
2026-05-08 17:39 -12.52757 -15.08075 34007 ft 473 kts 288°
2026-05-08 17:39 -12.50819 -15.14527 33992 ft 473 kts 288°
2026-05-08 17:40 -12.48880 -15.20981 33998 ft 473 kts 288°
2026-05-08 17:40 -12.46938 -15.27436 33993 ft 473 kts 288°
2026-05-08 17:41 -12.44993 -15.33894 33996 ft 473 kts 288°
2026-05-08 17:41 -12.43057 -15.40316 33994 ft 474 kts 288°
2026-05-08 17:42 -12.41109 -15.46777 33998 ft 473 kts 288°
2026-05-08 17:42 -12.39160 -15.53232 33997 ft 474 kts 288°
2026-05-08 17:43 -12.37210 -15.59682 33992 ft 474 kts 288°
2026-05-08 17:43 -12.35258 -15.66135 33993 ft 473 kts 288°
2026-05-08 17:44 -12.33314 -15.72553 34005 ft 474 kts 288°
2026-05-08 17:44 -12.31356 -15.79017 33995 ft 474 kts 288°
2026-05-08 17:45 -12.29398 -15.85470 33996 ft 474 kts 288°
2026-05-08 17:45 -12.27432 -15.91941 33991 ft 474 kts 288°
2026-05-08 17:46 -12.25480 -15.98360 34001 ft 474 kts 288°
2026-05-08 17:46 -12.23516 -16.04815 33991 ft 474 kts 288°
2026-05-08 17:47 -12.21548 -16.11279 34001 ft 474 kts 288°
2026-05-08 17:47 -12.19913 -16.16644 33989 ft 474 kts 288°
2026-05-08 17:48 -12.17608 -16.24201 33994 ft 474 kts 289°
2026-05-08 17:48 -12.15637 -16.30655 33991 ft 474 kts 288°
2026-05-08 17:49 -12.13674 -16.37080 33993 ft 474 kts 289°
2026-05-08 17:49 -12.11699 -16.43537 33990 ft 475 kts 289°
2026-05-08 17:50 -12.09732 -16.49962 33993 ft 475 kts 289°
2026-05-08 17:50 -12.07742 -16.56457 33988 ft 475 kts 289°
2026-05-08 17:51 -12.05756 -16.62933 33988 ft 475 kts 289°
2026-05-08 17:51 -12.03784 -16.69357 33993 ft 475 kts 289°
2026-05-08 17:52 -12.01800 -16.75814 33993 ft 475 kts 289°
2026-05-08 17:53 -11.98816 -16.85515 33989 ft 475 kts 289°
2026-05-08 17:53 -11.96829 -16.91968 33991 ft 475 kts 289°
2026-05-08 17:54 -11.94835 -16.98437 33988 ft 475 kts 289°
2026-05-08 17:54 -11.92843 -17.04897 33995 ft 476 kts 289°
2026-05-08 17:55 -11.90846 -17.11364 33988 ft 476 kts 289°
2026-05-08 17:55 -11.88850 -17.17824 33990 ft 476 kts 289°
2026-05-08 17:56 -11.86851 -17.24287 33991 ft 476 kts 289°
2026-05-08 17:56 -11.84846 -17.30764 33988 ft 476 kts 289°
2026-05-08 17:57 -11.82847 -17.37216 33986 ft 476 kts 289°
2026-05-08 17:57 -11.80858 -17.43629 33986 ft 476 kts 289°
2026-05-08 17:58 -11.78849 -17.50103 33984 ft 476 kts 289°
2026-05-08 17:58 -11.76840 -17.56569 33986 ft 477 kts 289°
2026-05-08 17:59 -11.74826 -17.63046 33988 ft 477 kts 289°
2026-05-08 17:59 -11.72810 -17.69526 33989 ft 477 kts 289°
2026-05-08 18:00 -11.70795 -17.75993 33988 ft 477 kts 289°
2026-05-08 18:00 -11.67774 -17.85678 33987 ft 476 kts 289°
2026-05-08 18:01 -11.65770 -17.92102 33987 ft 476 kts 289°
2026-05-08 18:01 -11.63749 -17.98574 34001 ft 476 kts 289°
2026-05-08 18:02 -11.62074 -18.03933 33988 ft 476 kts 289°
2026-05-08 18:02 -11.59723 -18.11450 33985 ft 476 kts 289°
2026-05-08 18:03 -11.57701 -18.17906 33984 ft 476 kts 289°
2026-05-08 18:03 -11.55680 -18.24356 33988 ft 476 kts 289°
2026-05-08 18:04 -11.53655 -18.30810 33984 ft 476 kts 289°
2026-05-08 18:04 -11.51641 -18.37225 33984 ft 476 kts 289°
2026-05-08 18:05 -11.49611 -18.43686 33982 ft 476 kts 289°
2026-05-08 18:05 -11.47584 -18.50130 33984 ft 476 kts 289°
2026-05-08 18:06 -11.45568 -18.56536 33981 ft 477 kts 289°
2026-05-08 18:06 -11.43528 -18.63010 33987 ft 478 kts 289°
2026-05-08 18:07 -11.41492 -18.69469 33982 ft 478 kts 289°
2026-05-08 18:07 -11.39446 -18.75952 33985 ft 479 kts 289°
2026-05-08 18:08 -11.37396 -18.82446 33987 ft 479 kts 289°
2026-05-08 18:08 -11.35346 -18.88928 33984 ft 480 kts 289°
2026-05-08 18:09 -11.33289 -18.95432 33985 ft 480 kts 290°
2026-05-08 18:09 -11.31231 -19.01929 33982 ft 481 kts 290°
2026-05-08 18:10 -11.29181 -19.08399 33984 ft 481 kts 290°
2026-05-08 18:10 -11.27116 -19.14910 33981 ft 481 kts 290°
2026-05-08 18:11 -11.25053 -19.21411 33982 ft 481 kts 290°
2026-05-08 18:11 -11.22984 -19.27922 33983 ft 481 kts 290°
2026-05-08 18:12 -11.20914 -19.34432 33985 ft 481 kts 290°
2026-05-08 18:12 -11.18843 -19.40941 33979 ft 481 kts 290°
2026-05-08 18:13 -11.16779 -19.47424 33984 ft 480 kts 290°
2026-05-08 18:13 -11.14721 -19.53882 33981 ft 480 kts 290°
2026-05-08 18:14 -11.12651 -19.60369 33981 ft 479 kts 290°
2026-05-08 18:14 -11.10583 -19.66848 33981 ft 479 kts 290°
2026-05-08 18:15 -11.08865 -19.72224 33982 ft 479 kts 290°
2026-05-08 18:15 -11.06796 -19.78701 33982 ft 479 kts 290°
2026-05-08 18:16 -11.04732 -19.85154 33980 ft 478 kts 290°
2026-05-08 18:16 -11.02665 -19.91618 33984 ft 478 kts 290°
2026-05-08 18:17 -11.00603 -19.98055 33979 ft 477 kts 290°
2026-05-08 18:17 -10.98683 -20.04545 33983 ft 478 kts 288°
2026-05-08 18:18 -10.96837 -20.11070 33983 ft 478 kts 288°
2026-05-08 18:18 -10.95005 -20.17551 33982 ft 478 kts 288°
2026-05-08 18:19 -10.93163 -20.24058 33981 ft 477 kts 288°
2026-05-08 18:19 -10.91316 -20.30576 33981 ft 477 kts 288°
2026-05-08 18:20 -10.89473 -20.37075 33983 ft 477 kts 288°
2026-05-08 18:20 -10.87629 -20.43572 33979 ft 477 kts 288°
2026-05-08 18:21 -10.85783 -20.50068 33984 ft 477 kts 288°
2026-05-08 18:21 -10.83933 -20.56573 33983 ft 476 kts 288°
2026-05-08 18:22 -10.82095 -20.63030 33982 ft 476 kts 288°
2026-05-08 18:22 -10.80240 -20.69542 33980 ft 476 kts 288°
2026-05-08 18:23 -10.78390 -20.76028 33977 ft 476 kts 288°
2026-05-08 18:23 -10.76541 -20.82510 33979 ft 476 kts 288°
2026-05-08 18:24 -10.74703 -20.88946 33980 ft 476 kts 288°
2026-05-08 18:24 -10.72847 -20.95438 33977 ft 476 kts 288°
2026-05-08 18:25 -10.70986 -21.01942 33977 ft 476 kts 288°
2026-05-08 18:25 -10.69130 -21.08425 33979 ft 475 kts 288°
2026-05-08 18:26 -10.67278 -21.14885 33981 ft 475 kts 288°
2026-05-08 18:26 -10.65417 -21.21372 33979 ft 475 kts 288°
2026-05-08 18:27 -10.63881 -21.26724 33981 ft 475 kts 288°
2026-05-08 18:27 -10.61715 -21.34265 33979 ft 475 kts 288°
2026-05-08 18:28 -10.59854 -21.40735 33977 ft 475 kts 288°
2026-05-08 18:28 -10.57997 -21.47188 33978 ft 474 kts 288°
2026-05-08 18:29 -10.56133 -21.53658 33978 ft 475 kts 288°
2026-05-08 18:29 -10.54275 -21.60104 33978 ft 474 kts 288°
2026-05-08 18:30 -10.52410 -21.66569 33982 ft 474 kts 288°
2026-05-08 18:30 -10.50547 -21.73022 33979 ft 474 kts 288°
2026-05-08 18:31 -10.48685 -21.79465 33973 ft 474 kts 288°
2026-05-08 18:31 -10.46822 -21.85908 33976 ft 474 kts 289°
2026-05-08 18:32 -10.44968 -21.92315 33976 ft 474 kts 289°
2026-05-08 18:32 -10.43098 -21.98769 33977 ft 474 kts 289°
2026-05-08 18:33 -10.41232 -22.05204 33974 ft 474 kts 289°
2026-05-08 18:33 -10.39360 -22.11658 33972 ft 474 kts 289°
2026-05-08 18:34 -10.37499 -22.18068 33972 ft 474 kts 289°
2026-05-08 18:34 -10.35626 -22.24513 33972 ft 474 kts 289°
2026-05-08 18:35 -10.33754 -22.30948 33979 ft 474 kts 289°
2026-05-08 18:35 -10.31877 -22.37397 33975 ft 474 kts 289°
2026-05-08 18:36 -10.30010 -22.43806 33975 ft 474 kts 289°
2026-05-08 18:36 -10.28130 -22.50254 33975 ft 474 kts 289°
2026-05-08 18:37 -10.26254 -22.56685 33973 ft 474 kts 289°
2026-05-08 18:37 -10.24370 -22.63137 33972 ft 474 kts 289°
2026-05-08 18:38 -10.22499 -22.69538 33971 ft 474 kts 289°
2026-05-08 18:38 -10.20614 -22.75985 33968 ft 474 kts 289°
2026-05-08 18:39 -10.18727 -22.82432 33968 ft 475 kts 289°
2026-05-08 18:39 -10.16850 -22.88839 33969 ft 475 kts 289°
2026-05-08 18:40 -10.14961 -22.95283 33968 ft 475 kts 289°
2026-05-08 18:40 -10.13072 -23.01720 33968 ft 475 kts 289°
2026-05-08 18:41 -10.11176 -23.08180 33966 ft 475 kts 289°
2026-05-08 18:41 -10.09277 -23.14641 33964 ft 475 kts 289°
2026-05-08 18:42 -10.07391 -23.21053 33965 ft 475 kts 289°
2026-05-08 18:42 -10.05484 -23.27535 33965 ft 475 kts 289°
2026-05-08 18:43 -10.03582 -23.33992 33965 ft 476 kts 289°
2026-05-08 18:43 -10.01684 -23.40432 33964 ft 476 kts 289°
2026-05-08 18:44 -9.99791 -23.46847 33965 ft 476 kts 289°
2026-05-08 18:44 -9.97886 -23.53301 33963 ft 476 kts 289°
2026-05-08 18:45 -9.95974 -23.59773 33963 ft 476 kts 289°
2026-05-08 18:45 -9.94068 -23.66220 33963 ft 476 kts 289°
2026-05-08 18:46 -9.92159 -23.72671 33963 ft 476 kts 289°
2026-05-08 18:46 -9.90244 -23.79139 33957 ft 476 kts 289°
2026-05-08 18:47 -9.88327 -23.85609 33962 ft 476 kts 289°
2026-05-08 18:47 -9.86419 -23.92040 33958 ft 476 kts 289°
2026-05-08 18:48 -9.84504 -23.98493 33963 ft 476 kts 289°
2026-05-08 18:48 -9.82588 -24.04944 33956 ft 476 kts 289°
2026-05-08 18:49 -9.80670 -24.11395 33954 ft 476 kts 289°
2026-05-08 18:49 -9.78750 -24.17849 33957 ft 476 kts 289°
2026-05-08 18:50 -9.76842 -24.24259 33957 ft 476 kts 289°
2026-05-08 18:50 -9.74924 -24.30699 33953 ft 476 kts 289°
2026-05-08 18:51 -9.72999 -24.37155 33955 ft 475 kts 289°
2026-05-08 18:51 -9.71078 -24.43593 33954 ft 475 kts 289°
2026-05-08 18:52 -9.69155 -24.50034 33955 ft 475 kts 289°
2026-05-08 18:52 -9.67247 -24.56421 33951 ft 475 kts 289°
2026-05-08 18:53 -9.65326 -24.62844 33953 ft 475 kts 289°
2026-05-08 18:53 -9.63402 -24.69274 33948 ft 474 kts 290°
2026-05-08 18:54 -9.61477 -24.75702 33947 ft 474 kts 290°
2026-05-08 18:54 -9.59553 -24.82123 33952 ft 474 kts 290°
2026-05-08 18:55 -9.56675 -24.91720 33951 ft 474 kts 290°
2026-05-08 18:56 -9.54749 -24.98136 33950 ft 474 kts 290°
2026-05-08 18:56 -9.52826 -25.04538 33949 ft 473 kts 290°
2026-05-08 18:57 -9.50910 -25.10909 33948 ft 473 kts 290°
2026-05-08 18:57 -9.48982 -25.17316 33948 ft 473 kts 290°
2026-05-08 18:58 -9.47057 -25.23712 33945 ft 473 kts 290°
2026-05-08 18:58 -9.45128 -25.30114 33946 ft 473 kts 290°
2026-05-08 18:59 -9.43199 -25.36513 33944 ft 473 kts 290°
2026-05-08 18:59 -9.41267 -25.42914 33947 ft 473 kts 290°
2026-05-08 19:00 -9.39660 -25.48237 33949 ft 473 kts 290°
2026-05-08 19:00 -9.37414 -25.55670 33943 ft 473 kts 290°
2026-05-08 19:01 -9.35483 -25.62058 33944 ft 473 kts 290°
2026-05-08 19:01 -9.33546 -25.68460 33946 ft 473 kts 290°
2026-05-08 19:02 -9.31609 -25.74855 33948 ft 473 kts 290°
2026-05-08 19:02 -9.29675 -25.81239 33943 ft 473 kts 290°
2026-05-08 19:03 -9.27748 -25.87594 33943 ft 473 kts 290°
2026-05-08 19:03 -9.25809 -25.93983 33944 ft 473 kts 290°
2026-05-08 19:04 -9.24196 -25.99296 33949 ft 473 kts 290°
2026-05-08 19:04 -9.22258 -26.05675 33949 ft 473 kts 290°
2026-05-08 19:05 -9.20312 -26.12075 33947 ft 473 kts 290°
2026-05-08 19:05 -9.18366 -26.18474 33946 ft 474 kts 290°
2026-05-08 19:06 -9.16419 -26.24869 33948 ft 474 kts 290°
2026-05-08 19:06 -9.14472 -26.31259 33946 ft 473 kts 290°
2026-05-08 19:07 -9.12527 -26.37640 33945 ft 473 kts 290°
2026-05-08 19:07 -9.10592 -26.43985 33946 ft 473 kts 290°
2026-05-08 19:08 -9.08644 -26.50363 33946 ft 474 kts 290°
2026-05-08 19:08 -9.06687 -26.56769 33943 ft 473 kts 290°
2026-05-08 19:09 -9.04732 -26.63166 33943 ft 474 kts 290°
2026-05-08 19:09 -9.02791 -26.69512 33942 ft 473 kts 290°
2026-05-08 19:10 -9.00838 -26.75894 33944 ft 473 kts 290°
2026-05-08 19:10 -8.98879 -26.82288 33942 ft 474 kts 290°
2026-05-08 19:11 -8.96919 -26.88683 33942 ft 474 kts 290°
2026-05-08 19:11 -8.94958 -26.95075 33940 ft 474 kts 290°
2026-05-08 19:12 -8.93007 -27.01435 33944 ft 475 kts 290°
2026-05-08 19:12 -8.91043 -27.07830 33941 ft 475 kts 290°
2026-05-08 19:13 -8.89076 -27.14229 33938 ft 475 kts 290°
2026-05-08 19:13 -8.87108 -27.20630 33940 ft 475 kts 290°
2026-05-08 19:14 -8.85136 -27.27039 33939 ft 475 kts 290°
2026-05-08 19:14 -8.83161 -27.33451 33942 ft 476 kts 290°
2026-05-08 19:15 -8.81199 -27.39819 33934 ft 476 kts 290°
2026-05-08 19:15 -8.79227 -27.46214 33940 ft 476 kts 290°
2026-05-08 19:16 -8.77242 -27.52649 33935 ft 476 kts 290°
2026-05-08 19:16 -8.75256 -27.59081 33938 ft 477 kts 290°
2026-05-08 19:17 -8.73284 -27.65467 33935 ft 477 kts 290°
2026-05-08 19:17 -8.71289 -27.71920 33935 ft 477 kts 290°
2026-05-08 19:18 -8.69308 -27.78323 33936 ft 477 kts 290°
2026-05-08 19:18 -8.67320 -27.84746 33934 ft 478 kts 290°
2026-05-08 19:19 -8.65329 -27.91174 33934 ft 478 kts 290°
2026-05-08 19:19 -8.63334 -27.97611 33936 ft 478 kts 290°
2026-05-08 19:20 -8.61352 -28.04000 33937 ft 478 kts 290°
2026-05-08 19:20 -8.59350 -28.10453 33936 ft 478 kts 290°
2026-05-08 19:21 -8.57354 -28.16880 33938 ft 478 kts 290°
2026-05-08 19:21 -8.55358 -28.23305 33938 ft 478 kts 290°
2026-05-08 19:22 -8.53359 -28.29732 33935 ft 477 kts 290°
2026-05-08 19:22 -8.51366 -28.36138 33935 ft 477 kts 290°
2026-05-08 19:23 -8.49368 -28.42558 33934 ft 477 kts 290°
2026-05-08 19:23 -8.47378 -28.48945 33935 ft 477 kts 290°
2026-05-08 19:24 -8.45378 -28.55362 33933 ft 477 kts 290°
2026-05-08 19:24 -8.43374 -28.61786 33932 ft 477 kts 290°
2026-05-08 19:25 -8.41377 -28.68185 33934 ft 476 kts 290°
2026-05-08 19:25 -8.39380 -28.74580 33935 ft 476 kts 290°
2026-05-08 19:26 -8.37381 -28.80976 33935 ft 476 kts 290°
2026-05-08 19:26 -8.35396 -28.87325 33935 ft 476 kts 290°
2026-05-08 19:27 -8.33399 -28.93710 33935 ft 476 kts 290°
2026-05-08 19:27 -8.31395 -29.00109 33937 ft 476 kts 290°
2026-05-08 19:28 -8.29393 -29.06500 33937 ft 476 kts 290°
2026-05-08 19:28 -8.27389 -29.12895 33932 ft 476 kts 290°
2026-05-08 19:29 -8.25384 -29.19291 33935 ft 476 kts 290°
2026-05-08 19:29 -8.23381 -29.25674 33935 ft 476 kts 290°
2026-05-08 19:30 -8.21386 -29.32026 33934 ft 476 kts 290°
2026-05-08 19:30 -8.19371 -29.38441 33937 ft 476 kts 290°
2026-05-08 19:31 -8.17362 -29.44832 33938 ft 476 kts 290°
2026-05-08 19:31 -8.15349 -29.51235 33938 ft 476 kts 290°
2026-05-08 19:32 -8.13356 -29.57569 33938 ft 475 kts 290°
2026-05-08 19:32 -8.11351 -29.63936 33937 ft 474 kts 290°
2026-05-08 19:33 -8.09347 -29.70300 33940 ft 474 kts 290°
2026-05-08 19:33 -8.07340 -29.76666 33932 ft 473 kts 290°
2026-05-08 19:34 -8.05344 -29.83001 33935 ft 473 kts 290°
2026-05-08 19:34 -8.03351 -29.89322 33934 ft 472 kts 290°
2026-05-08 19:35 -8.01402 -29.95673 33934 ft 473 kts 288°
2026-05-08 19:35 -7.99964 -30.02195 33935 ft 475 kts 282°
2026-05-08 19:36 -7.99162 -30.08845 33940 ft 478 kts 278°
2026-05-08 19:36 -7.98572 -30.15522 33939 ft 480 kts 278°
2026-05-08 19:37 -7.97977 -30.22280 33935 ft 481 kts 278°
2026-05-08 19:37 -7.97379 -30.29021 33939 ft 483 kts 278°
2026-05-08 19:38 -7.96777 -30.35786 33942 ft 484 kts 278°
2026-05-08 19:38 -7.96171 -30.42582 33940 ft 485 kts 278°
2026-05-08 19:39 -7.95562 -30.49386 33939 ft 486 kts 278°
2026-05-08 19:39 -7.94950 -30.56210 33939 ft 487 kts 278°
2026-05-08 19:40 -7.94335 -30.63057 33941 ft 488 kts 278°
2026-05-08 19:40 -7.93719 -30.69905 33942 ft 489 kts 278°
2026-05-08 19:41 -7.93101 -30.76757 33940 ft 488 kts 278°
2026-05-08 19:41 -7.92483 -30.83599 33942 ft 488 kts 278°
2026-05-08 19:42 -7.91868 -30.90394 33941 ft 487 kts 278°
2026-05-08 19:42 -7.91248 -30.97229 33942 ft 486 kts 278°
2026-05-08 19:43 -7.90629 -31.04040 33941 ft 486 kts 278°
2026-05-08 19:43 -7.90009 -31.10851 33941 ft 485 kts 278°
2026-05-08 19:44 -7.89392 -31.17613 33940 ft 485 kts 278°
2026-05-08 19:44 -7.88770 -31.24413 33941 ft 484 kts 278°
2026-05-08 19:45 -7.88148 -31.31215 33941 ft 484 kts 278°
2026-05-08 19:45 -7.87527 -31.37983 33943 ft 483 kts 278°
2026-05-08 19:46 -7.86905 -31.44753 33942 ft 483 kts 278°
2026-05-08 19:46 -7.85975 -31.54859 33946 ft 482 kts 278°
2026-05-08 19:47 -7.85351 -31.61619 33946 ft 481 kts 278°
2026-05-08 19:47 -7.84728 -31.68343 33946 ft 481 kts 278°
2026-05-08 19:48 -7.84104 -31.75078 33945 ft 480 kts 278°
2026-05-08 19:48 -7.83484 -31.81769 33949 ft 479 kts 278°
2026-05-08 19:49 -7.82860 -31.88475 33950 ft 478 kts 278°
2026-05-08 19:49 -7.82238 -31.95162 33947 ft 478 kts 277°
2026-05-08 19:50 -7.81611 -32.01879 33948 ft 477 kts 277°
2026-05-08 19:50 -7.81093 -32.07423 33950 ft 476 kts 277°
2026-05-08 19:51 -7.80468 -32.14102 33951 ft 476 kts 277°
2026-05-08 19:51 -7.79845 -32.20758 33951 ft 475 kts 277°
2026-05-08 19:52 -7.79220 -32.27419 33953 ft 475 kts 277°
2026-05-08 19:52 -7.78594 -32.34091 33952 ft 475 kts 277°
2026-05-08 19:53 -7.77972 -32.40692 33951 ft 474 kts 277°
2026-05-08 19:53 -7.77345 -32.47346 33953 ft 474 kts 277°
2026-05-08 19:54 -7.76717 -32.53993 33953 ft 474 kts 277°
2026-05-08 19:54 -7.76088 -32.60644 33953 ft 474 kts 277°
2026-05-08 19:55 -7.75463 -32.67236 33954 ft 474 kts 277°
2026-05-08 19:55 -7.74832 -32.73879 33954 ft 474 kts 277°
2026-05-08 19:56 -7.74200 -32.80531 33954 ft 474 kts 277°
2026-05-08 19:56 -7.73568 -32.87162 33955 ft 474 kts 277°
2026-05-08 19:57 -7.72938 -32.93764 33955 ft 474 kts 277°
2026-05-08 19:57 -7.72301 -33.00429 33954 ft 474 kts 277°
2026-05-08 19:58 -7.71665 -33.07074 33957 ft 474 kts 277°
2026-05-08 19:58 -7.71028 -33.13721 33952 ft 474 kts 277°
2026-05-08 19:59 -7.70391 -33.20354 33952 ft 474 kts 277°
2026-05-08 19:59 -7.69748 -33.27028 33956 ft 474 kts 277°
2026-05-08 20:00 -7.69113 -33.33626 33954 ft 474 kts 277°
2026-05-08 20:00 -7.68469 -33.40294 33959 ft 474 kts 277°
2026-05-08 20:01 -7.67827 -33.46938 33958 ft 474 kts 277°
2026-05-08 20:01 -7.67184 -33.53580 33959 ft 474 kts 277°
2026-05-08 20:02 -7.66540 -33.60215 33960 ft 474 kts 277°
2026-05-08 20:02 -7.65894 -33.66865 33957 ft 474 kts 277°
2026-05-08 20:03 -7.65251 -33.73472 33959 ft 474 kts 277°
2026-05-08 20:03 -7.64605 -33.80099 33959 ft 475 kts 277°
2026-05-08 20:04 -7.63956 -33.86751 33963 ft 475 kts 277°
2026-05-08 20:04 -7.63306 -33.93404 33961 ft 475 kts 277°
2026-05-08 20:05 -7.62660 -34.00002 33960 ft 475 kts 277°
2026-05-08 20:05 -7.62004 -34.06683 33961 ft 475 kts 277°
2026-05-08 20:06 -7.61350 -34.13340 33958 ft 475 kts 277°
2026-05-08 20:06 -7.60700 -34.19953 33959 ft 475 kts 277°
2026-05-08 20:07 -7.60042 -34.26627 33959 ft 475 kts 277°
2026-05-08 20:07 -7.59386 -34.33281 33960 ft 475 kts 277°
2026-05-08 20:08 -7.58727 -34.39945 33965 ft 475 kts 277°
2026-05-08 20:08 -7.58061 -34.46668 33963 ft 475 kts 277°
2026-05-08 20:09 -7.57399 -34.53343 33963 ft 475 kts 277°
2026-05-08 20:09 -7.56742 -34.59955 33958 ft 475 kts 277°
2026-05-08 20:10 -7.56074 -34.66676 33961 ft 476 kts 277°
2026-05-08 20:10 -7.55409 -34.73348 33964 ft 476 kts 277°
2026-05-08 20:11 -7.54742 -34.80029 33967 ft 476 kts 277°
2026-05-08 20:11 -7.54080 -34.86662 33965 ft 476 kts 277°
2026-05-08 20:12 -7.53412 -34.93338 33971 ft 476 kts 277°
2026-05-08 20:12 -7.52743 -35.00006 33968 ft 476 kts 277°
2026-05-08 20:13 -7.52078 -35.06641 33971 ft 476 kts 277°
2026-05-08 20:13 -7.51408 -35.13301 33971 ft 476 kts 277°
2026-05-08 20:14 -7.50738 -35.19956 33974 ft 476 kts 277°
2026-05-08 20:14 -7.50065 -35.26634 33974 ft 476 kts 277°
2026-05-08 20:15 -7.49391 -35.33313 33974 ft 476 kts 277°
2026-05-08 20:15 -7.48716 -35.39982 33976 ft 476 kts 277°
2026-05-08 20:16 -7.48045 -35.46607 33981 ft 477 kts 277°
2026-05-08 20:16 -7.47369 -35.53279 33981 ft 477 kts 277°
2026-05-08 20:17 -7.46689 -35.59975 33983 ft 477 kts 277°
2026-05-08 20:17 -7.46002 -35.66733 33993 ft 477 kts 277°
2026-05-08 20:18 -7.45328 -35.73371 33996 ft 478 kts 277°
2026-05-08 20:18 -7.44644 -35.80092 34002 ft 478 kts 277°
2026-05-08 20:19 -7.43963 -35.86776 34005 ft 478 kts 277°
2026-05-08 20:19 -7.43254 -35.93494 34005 ft 479 kts 278°
2026-05-08 20:20 -7.42495 -36.00200 34005 ft 479 kts 278°
2026-05-08 20:20 -7.41737 -36.06901 34019 ft 482 kts 278°
2026-05-08 20:21 -7.41357 -36.10277 34273 ft 480 kts 278°
2026-05-08 20:21 -7.40980 -36.13632 34654 ft 476 kts 278°
2026-05-08 20:21 -7.40606 -36.16961 35004 ft 473 kts 278°
2026-05-08 20:21 -7.40234 -36.20276 35296 ft 471 kts 278°
2026-05-08 20:22 -7.39864 -36.23568 35553 ft 470 kts 278°
2026-05-08 20:22 -7.39495 -36.26856 35797 ft 469 kts 278°
2026-05-08 20:22 -7.39132 -36.30087 35981 ft 469 kts 277°
2026-05-08 20:22 -7.38883 -36.32307 35978 ft 469 kts 277°
2026-05-08 20:23 -7.38030 -36.39913 35986 ft 468 kts 277°
2026-05-08 20:23 -7.37296 -36.46436 35989 ft 468 kts 277°
2026-05-08 20:24 -7.36559 -36.52975 35993 ft 467 kts 277°
2026-05-08 20:24 -7.35824 -36.59498 35986 ft 467 kts 277°
2026-05-08 20:25 -7.35091 -36.65989 35987 ft 467 kts 277°
2026-05-08 20:25 -7.34356 -36.72507 35990 ft 467 kts 277°
2026-05-08 20:26 -7.33614 -36.79056 35991 ft 467 kts 278°
2026-05-08 20:26 -7.32861 -36.85577 35979 ft 467 kts 278°
2026-05-08 20:27 -7.32108 -36.92091 35979 ft 467 kts 278°
2026-05-08 20:27 -7.31331 -36.98614 35976 ft 467 kts 279°
2026-05-08 20:28 -7.30315 -37.05134 35979 ft 467 kts 280°
2026-05-08 20:28 -7.29294 -37.11569 35976 ft 467 kts 280°
2026-05-08 20:29 -7.28270 -37.18043 35974 ft 467 kts 280°
2026-05-08 20:29 -7.27246 -37.24533 35971 ft 467 kts 280°
2026-05-08 20:30 -7.26223 -37.31006 35967 ft 467 kts 280°
2026-05-08 20:30 -7.25197 -37.37502 35964 ft 467 kts 280°
2026-05-08 20:31 -7.24169 -37.44012 35966 ft 468 kts 280°
2026-05-08 20:31 -7.23143 -37.50502 35959 ft 468 kts 280°
2026-05-08 20:32 -7.22113 -37.56992 35955 ft 468 kts 280°
2026-05-08 20:32 -7.21063 -37.63491 35949 ft 468 kts 280°
2026-05-08 20:33 -7.20019 -37.69948 35945 ft 468 kts 280°
2026-05-08 20:33 -7.18971 -37.76447 35951 ft 468 kts 280°
2026-05-08 20:34 -7.17924 -37.82954 35947 ft 468 kts 280°
2026-05-08 20:35 -7.16351 -37.92703 35941 ft 468 kts 280°
2026-05-08 20:35 -7.15284 -37.99199 35938 ft 468 kts 280°
2026-05-08 20:36 -7.14209 -38.05719 35939 ft 468 kts 280°
2026-05-08 20:36 -7.13148 -38.12175 35937 ft 469 kts 280°
2026-05-08 20:37 -7.12081 -38.18669 35937 ft 468 kts 280°
2026-05-08 20:37 -7.11013 -38.25171 35939 ft 469 kts 280°
2026-05-08 20:38 -7.09942 -38.31683 35937 ft 469 kts 280°
2026-05-08 20:38 -7.09054 -38.37087 35928 ft 469 kts 280°
2026-05-08 20:39 -7.07803 -38.44692 35936 ft 469 kts 280°
2026-05-08 20:39 -7.06893 -38.50160 35922 ft 469 kts 280°
2026-05-08 20:40 -7.05807 -38.56605 35935 ft 469 kts 280°
2026-05-08 20:40 -7.04716 -38.63100 35935 ft 469 kts 280°
2026-05-08 20:41 -7.03626 -38.69604 35933 ft 469 kts 280°
2026-05-08 20:41 -7.02531 -38.76119 35916 ft 469 kts 280°
2026-05-08 20:42 -7.01426 -38.82617 35931 ft 469 kts 280°
2026-05-08 20:42 -7.00320 -38.89126 35929 ft 469 kts 280°
2026-05-08 20:43 -6.99218 -38.95622 35929 ft 469 kts 279°
2026-05-08 20:43 -6.98112 -39.02152 35920 ft 470 kts 279°
2026-05-08 20:44 -6.97011 -39.08641 35932 ft 470 kts 279°
2026-05-08 20:44 -6.95920 -39.15159 35924 ft 470 kts 279°
2026-05-08 20:45 -6.94850 -39.21687 35938 ft 470 kts 279°
2026-05-08 20:45 -6.93782 -39.28202 35927 ft 470 kts 279°
2026-05-08 20:46 -6.92719 -39.34678 35929 ft 470 kts 279°
2026-05-08 20:46 -6.91651 -39.41187 35923 ft 470 kts 279°
2026-05-08 20:47 -6.90578 -39.47717 35929 ft 470 kts 279°
2026-05-08 20:47 -6.89505 -39.54232 35927 ft 471 kts 279°
2026-05-08 20:48 -6.88432 -39.60762 35921 ft 471 kts 279°
2026-05-08 20:48 -6.87371 -39.67246 35929 ft 471 kts 279°
2026-05-08 20:49 -6.86301 -39.73774 35917 ft 471 kts 279°
2026-05-08 20:49 -6.85227 -39.80294 35917 ft 471 kts 279°
2026-05-08 20:50 -6.84146 -39.86829 35933 ft 471 kts 279°
2026-05-08 20:50 -6.83060 -39.93363 35933 ft 471 kts 279°
2026-05-08 20:51 -6.81978 -39.99893 35917 ft 472 kts 279°
2026-05-08 20:51 -6.80903 -40.06395 35919 ft 472 kts 279°
2026-05-08 20:52 -6.79819 -40.12946 35927 ft 472 kts 279°
2026-05-08 20:52 -6.78719 -40.19491 35917 ft 472 kts 279°
2026-05-08 20:53 -6.77610 -40.25986 35923 ft 472 kts 279°
2026-05-08 20:53 -6.76497 -40.32523 35934 ft 472 kts 279°
2026-05-08 20:54 -6.75387 -40.39055 35921 ft 472 kts 279°
2026-05-08 20:54 -6.74275 -40.45600 35926 ft 472 kts 279°
2026-05-08 20:55 -6.73163 -40.52143 35930 ft 473 kts 279°
2026-05-08 20:55 -6.72053 -40.58669 35933 ft 473 kts 279°
2026-05-08 20:56 -6.70939 -40.65219 35933 ft 473 kts 279°
2026-05-08 20:56 -6.69835 -40.71715 35929 ft 473 kts 279°
2026-05-08 20:57 -6.68716 -40.78255 35918 ft 473 kts 279°
2026-05-08 20:57 -6.67575 -40.84805 35929 ft 473 kts 279°
2026-05-08 20:58 -6.66437 -40.91356 35925 ft 473 kts 279°
2026-05-08 20:58 -6.65283 -40.98006 35911 ft 473 kts 279°
2026-05-08 20:59 -6.64145 -41.04571 35923 ft 473 kts 279°
2026-05-08 20:59 -6.63012 -41.11110 35919 ft 473 kts 279°
2026-05-08 21:00 -6.61871 -41.17685 35923 ft 473 kts 279°
2026-05-08 21:00 -6.60740 -41.24241 35914 ft 473 kts 279°
2026-05-08 21:01 -6.59627 -41.30789 35911 ft 473 kts 279°
2026-05-08 21:01 -6.58516 -41.37332 35915 ft 473 kts 279°
2026-05-08 21:02 -6.57406 -41.43871 35913 ft 473 kts 279°
2026-05-08 21:02 -6.56294 -41.50409 35907 ft 473 kts 279°
2026-05-08 21:03 -6.55177 -41.56981 35910 ft 473 kts 279°
2026-05-08 21:03 -6.54063 -41.63519 35907 ft 473 kts 279°
2026-05-08 21:04 -6.52948 -41.70063 35910 ft 473 kts 279°
2026-05-08 21:04 -6.51839 -41.76567 35902 ft 473 kts 279°
2026-05-08 21:05 -6.50722 -41.83115 35901 ft 473 kts 279°
2026-05-08 21:05 -6.49602 -41.89669 35900 ft 473 kts 279°
2026-05-08 21:06 -6.48484 -41.96212 35894 ft 473 kts 279°
2026-05-08 21:06 -6.47361 -42.02778 35898 ft 473 kts 279°
2026-05-08 21:07 -6.46242 -42.09316 35899 ft 473 kts 279°
2026-05-08 21:07 -6.45124 -42.15844 35895 ft 473 kts 279°
2026-05-08 21:08 -6.44008 -42.22353 35894 ft 473 kts 279°
2026-05-08 21:08 -6.42884 -42.28904 35892 ft 473 kts 279°
2026-05-08 21:09 -6.41759 -42.35457 35887 ft 473 kts 279°
2026-05-08 21:09 -6.40636 -42.41998 35893 ft 473 kts 279°
2026-05-08 21:10 -6.39514 -42.48532 35885 ft 473 kts 279°
2026-05-08 21:10 -6.38396 -42.55039 35883 ft 473 kts 279°
2026-05-08 21:11 -6.37271 -42.61586 35888 ft 473 kts 279°
2026-05-08 21:11 -6.36140 -42.68139 35885 ft 473 kts 279°
2026-05-08 21:12 -6.34982 -42.74673 35888 ft 473 kts 279°
2026-05-08 21:12 -6.33823 -42.81213 35891 ft 473 kts 279°
2026-05-08 21:13 -6.32668 -42.87744 35889 ft 473 kts 279°
2026-05-08 21:13 -6.31520 -42.94240 35891 ft 473 kts 279°
2026-05-08 21:14 -6.30364 -43.00782 35888 ft 473 kts 279°
2026-05-08 21:14 -6.29210 -43.07309 35885 ft 473 kts 279°
2026-05-08 21:15 -6.28054 -43.13847 35890 ft 473 kts 279°
2026-05-08 21:15 -6.26899 -43.20374 35887 ft 473 kts 279°
2026-05-08 21:16 -6.25742 -43.26908 35891 ft 473 kts 279°
2026-05-08 21:16 -6.24595 -43.33394 35898 ft 473 kts 279°
2026-05-08 21:17 -6.23436 -43.39933 35897 ft 473 kts 279°
2026-05-08 21:17 -6.22293 -43.46456 35903 ft 473 kts 279°
2026-05-08 21:18 -6.21151 -43.53009 35897 ft 473 kts 279°
2026-05-08 21:18 -6.20013 -43.59543 35895 ft 473 kts 279°
2026-05-08 21:19 -6.18874 -43.66076 35897 ft 473 kts 279°
2026-05-08 21:19 -6.17743 -43.72555 35902 ft 473 kts 279°
2026-05-08 21:20 -6.16602 -43.79094 35902 ft 473 kts 279°
2026-05-08 21:20 -6.15461 -43.85624 35898 ft 473 kts 279°
2026-05-08 21:21 -6.14321 -43.92150 35896 ft 473 kts 279°
2026-05-08 21:21 -6.13179 -43.98682 35896 ft 473 kts 279°
2026-05-08 21:22 -6.12033 -44.05232 35891 ft 473 kts 279°
2026-05-08 21:22 -6.10892 -44.11762 35899 ft 473 kts 279°
2026-05-08 21:23 -6.09748 -44.18296 35894 ft 473 kts 279°
2026-05-08 21:23 -6.08600 -44.24803 35899 ft 473 kts 279°
2026-05-08 21:24 -6.07444 -44.31331 35894 ft 473 kts 279°
2026-05-08 21:24 -6.06289 -44.37866 35889 ft 473 kts 279°
2026-05-08 21:25 -6.05127 -44.44396 35890 ft 473 kts 279°
2026-05-08 21:25 -6.04156 -44.49815 35892 ft 474 kts 279°
2026-05-08 21:26 -6.02986 -44.56360 35895 ft 473 kts 279°
2026-05-08 21:26 -6.01820 -44.62891 35890 ft 473 kts 279°
2026-05-08 21:27 -6.00655 -44.69422 35891 ft 473 kts 279°
2026-05-08 21:27 -5.99494 -44.75919 35889 ft 474 kts 279°
2026-05-08 21:28 -5.98317 -44.82510 35889 ft 474 kts 279°
2026-05-08 21:28 -5.97156 -44.89004 35890 ft 474 kts 279°
2026-05-08 21:29 -5.95984 -44.95555 35882 ft 474 kts 279°
2026-05-08 21:29 -5.94809 -45.02126 35885 ft 474 kts 279°
2026-05-08 21:30 -5.93641 -45.08660 35886 ft 474 kts 279°
2026-05-08 21:30 -5.92477 -45.15162 35885 ft 474 kts 279°
2026-05-08 21:31 -5.91302 -45.21704 35877 ft 474 kts 279°
2026-05-08 21:31 -5.90130 -45.28244 35883 ft 474 kts 279°
2026-05-08 21:32 -5.88959 -45.34791 35883 ft 474 kts 279°
2026-05-08 21:32 -5.87784 -45.41366 35887 ft 474 kts 279°
2026-05-08 21:33 -5.86621 -45.47870 35883 ft 474 kts 280°
2026-05-08 21:33 -5.85451 -45.54405 35889 ft 474 kts 280°
2026-05-08 21:34 -5.84278 -45.60957 35880 ft 474 kts 280°
2026-05-08 21:34 -5.83109 -45.67480 35881 ft 474 kts 280°
2026-05-08 21:35 -5.81936 -45.74028 35884 ft 474 kts 280°
2026-05-08 21:35 -5.80761 -45.80577 35876 ft 474 kts 280°
2026-05-08 21:36 -5.79586 -45.87122 35880 ft 474 kts 280°
2026-05-08 21:36 -5.78407 -45.93684 35887 ft 474 kts 280°
2026-05-08 21:37 -5.77230 -46.00234 35880 ft 474 kts 280°
2026-05-08 21:37 -5.76054 -46.06771 35878 ft 474 kts 280°
2026-05-08 21:38 -5.74887 -46.13261 35878 ft 474 kts 280°
2026-05-08 21:38 -5.73710 -46.19800 35878 ft 474 kts 280°
2026-05-08 21:39 -5.72535 -46.26337 35883 ft 474 kts 280°
2026-05-08 21:39 -5.71359 -46.32868 35879 ft 474 kts 280°
2026-05-08 21:40 -5.70176 -46.39409 35883 ft 474 kts 280°
2026-05-08 21:40 -5.68984 -46.45963 35876 ft 474 kts 280°
2026-05-08 21:41 -5.67215 -46.55719 35881 ft 474 kts 280°
2026-05-08 21:41 -5.66030 -46.62256 35884 ft 474 kts 280°
2026-05-08 21:42 -5.64845 -46.68792 35883 ft 474 kts 280°
2026-05-08 21:42 -5.63662 -46.75317 35878 ft 474 kts 280°
2026-05-08 21:43 -5.62475 -46.81858 35883 ft 474 kts 280°
2026-05-08 21:43 -5.61291 -46.88381 35882 ft 474 kts 280°
2026-05-08 21:44 -5.60110 -46.94880 35883 ft 474 kts 280°
2026-05-08 21:44 -5.58922 -47.01418 35879 ft 474 kts 280°
2026-05-08 21:45 -5.57736 -47.07935 35882 ft 474 kts 281°
2026-05-08 21:45 -5.56542 -47.14498 35877 ft 473 kts 281°
2026-05-08 21:46 -5.55352 -47.21033 35872 ft 473 kts 281°
2026-05-08 21:46 -5.54166 -47.27547 35876 ft 473 kts 281°
2026-05-08 21:47 -5.52976 -47.34087 35872 ft 473 kts 281°
2026-05-08 21:47 -5.51797 -47.40564 35869 ft 473 kts 281°
2026-05-08 21:48 -5.50605 -47.47085 35872 ft 473 kts 281°
2026-05-08 21:48 -5.49399 -47.53608 35873 ft 473 kts 281°
2026-05-08 21:49 -5.48196 -47.60124 35871 ft 473 kts 281°
2026-05-08 21:49 -5.46995 -47.66646 35874 ft 473 kts 281°
2026-05-08 21:50 -5.45794 -47.73163 35874 ft 473 kts 281°
2026-05-08 21:50 -5.44602 -47.79634 35868 ft 473 kts 281°
2026-05-08 21:51 -5.43402 -47.86152 35868 ft 473 kts 281°
2026-05-08 21:51 -5.42204 -47.92654 35865 ft 473 kts 281°
2026-05-08 21:52 -5.41006 -47.99160 35868 ft 473 kts 281°
2026-05-08 21:52 -5.39809 -48.05646 35867 ft 473 kts 281°
2026-05-08 21:53 -5.38611 -48.12153 35864 ft 473 kts 281°
2026-05-08 21:53 -5.37417 -48.18663 35863 ft 472 kts 281°
2026-05-08 21:54 -5.36228 -48.25158 35860 ft 472 kts 281°
2026-05-08 21:54 -5.35028 -48.31703 35865 ft 472 kts 281°
2026-05-08 21:55 -5.33835 -48.38216 35867 ft 472 kts 281°
2026-05-08 21:56 -5.32053 -48.47936 35860 ft 472 kts 281°
2026-05-08 21:56 -5.30858 -48.54453 35868 ft 472 kts 281°
2026-05-08 21:57 -5.29664 -48.60970 35865 ft 472 kts 281°
2026-05-08 21:57 -5.28469 -48.67475 35865 ft 472 kts 281°
2026-05-08 21:58 -5.27249 -48.73992 35869 ft 472 kts 281°
2026-05-08 21:58 -5.26032 -48.80479 35868 ft 472 kts 281°
2026-05-08 21:59 -5.24813 -48.86993 35870 ft 472 kts 281°
2026-05-08 21:59 -5.23607 -48.93443 35867 ft 472 kts 281°
2026-05-08 22:00 -5.22390 -48.99955 35872 ft 472 kts 281°
2026-05-08 22:00 -5.21172 -49.06464 35869 ft 472 kts 281°
2026-05-08 22:01 -5.19957 -49.12963 35871 ft 472 kts 281°
2026-05-08 22:01 -5.18752 -49.19412 35873 ft 472 kts 281°
2026-05-08 22:02 -5.17534 -49.25919 35871 ft 472 kts 281°
2026-05-08 22:02 -5.16315 -49.32428 35872 ft 472 kts 281°
2026-05-08 22:03 -5.15096 -49.38929 35868 ft 472 kts 281°
2026-05-08 22:03 -5.13876 -49.45430 35869 ft 473 kts 281°
2026-05-08 22:04 -5.12661 -49.51895 35864 ft 473 kts 281°
2026-05-08 22:04 -5.11439 -49.58403 35867 ft 473 kts 281°
2026-05-08 22:05 -5.10215 -49.64916 35868 ft 473 kts 281°
2026-05-08 22:05 -5.08988 -49.71440 35866 ft 474 kts 281°
2026-05-08 22:06 -5.07763 -49.77950 35868 ft 474 kts 281°
2026-05-08 22:06 -5.06542 -49.84433 35874 ft 474 kts 281°
2026-05-08 22:07 -5.05313 -49.90960 35873 ft 474 kts 281°
2026-05-08 22:07 -5.04082 -49.97491 35873 ft 475 kts 281°
2026-05-08 22:08 -5.02845 -50.04054 35872 ft 475 kts 281°
2026-05-08 22:08 -5.01621 -50.10539 35870 ft 475 kts 281°
2026-05-08 22:09 -5.00386 -50.17088 35878 ft 475 kts 281°
2026-05-08 22:09 -4.99152 -50.23626 35878 ft 476 kts 281°
2026-05-08 22:10 -4.97924 -50.30137 35876 ft 476 kts 281°
2026-05-08 22:10 -4.96686 -50.36696 35877 ft 476 kts 281°
2026-05-08 22:11 -4.95459 -50.43208 35879 ft 476 kts 281°
2026-05-08 22:11 -4.94233 -50.49749 35878 ft 476 kts 281°
2026-05-08 22:12 -4.93007 -50.56301 35877 ft 476 kts 281°
2026-05-08 22:12 -4.91781 -50.62849 35876 ft 476 kts 281°
2026-05-08 22:13 -4.90555 -50.69398 35882 ft 476 kts 281°
2026-05-08 22:13 -4.89331 -50.75934 35879 ft 476 kts 281°
2026-05-08 22:14 -4.88103 -50.82493 35877 ft 476 kts 281°
2026-05-08 22:14 -4.87081 -50.87945 35876 ft 476 kts 281°
2026-05-08 22:15 -4.85855 -50.94487 35876 ft 476 kts 281°
2026-05-08 22:15 -4.84625 -51.01056 35877 ft 476 kts 280°
2026-05-08 22:16 -4.83395 -51.07610 35874 ft 476 kts 280°
2026-05-08 22:16 -4.82156 -51.14157 35877 ft 476 kts 281°
2026-05-08 22:17 -4.80905 -51.20701 35879 ft 476 kts 281°
2026-05-08 22:17 -4.79659 -51.27235 35881 ft 476 kts 281°
2026-05-08 22:18 -4.78422 -51.33734 35873 ft 476 kts 280°
2026-05-08 22:18 -4.77181 -51.40277 35886 ft 476 kts 281°
2026-05-08 22:19 -4.75931 -51.46828 35880 ft 476 kts 281°
2026-05-08 22:19 -4.74666 -51.53465 35880 ft 476 kts 281°
2026-05-08 22:20 -4.73417 -51.60015 35880 ft 476 kts 281°
2026-05-08 22:20 -4.72172 -51.66547 35880 ft 476 kts 281°
2026-05-08 22:21 -4.70934 -51.73042 35887 ft 476 kts 281°
2026-05-08 22:21 -4.69687 -51.79579 35882 ft 476 kts 281°
2026-05-08 22:22 -4.68442 -51.86112 35886 ft 476 kts 281°
2026-05-08 22:22 -4.67193 -51.92656 35882 ft 476 kts 281°
2026-05-08 22:23 -4.65948 -51.99181 35888 ft 475 kts 281°
2026-05-08 22:23 -4.64708 -52.05703 35884 ft 476 kts 281°
2026-05-08 22:24 -4.63469 -52.12234 35887 ft 475 kts 281°
2026-05-08 22:24 -4.62229 -52.18772 35883 ft 475 kts 281°
2026-05-08 22:25 -4.60997 -52.25269 35886 ft 475 kts 281°
2026-05-08 22:25 -4.59756 -52.31809 35883 ft 475 kts 281°
2026-05-08 22:26 -4.58515 -52.38343 35883 ft 475 kts 281°
2026-05-08 22:26 -4.57276 -52.44867 35880 ft 475 kts 281°
2026-05-08 22:27 -4.56034 -52.51402 35883 ft 475 kts 281°
2026-05-08 22:27 -4.54799 -52.57906 35880 ft 475 kts 281°
2026-05-08 22:28 -4.53558 -52.64434 35886 ft 475 kts 281°
2026-05-08 22:28 -4.52319 -52.70960 35889 ft 475 kts 281°
2026-05-08 22:29 -4.51076 -52.77488 35888 ft 475 kts 281°
2026-05-08 22:29 -4.49842 -52.83962 35889 ft 475 kts 281°
2026-05-08 22:30 -4.48599 -52.90498 35886 ft 475 kts 281°
2026-05-08 22:30 -4.47356 -52.97040 35883 ft 475 kts 281°
2026-05-08 22:31 -4.46121 -53.03545 35883 ft 475 kts 281°
2026-05-08 22:31 -4.44881 -53.10073 35883 ft 475 kts 281°
2026-05-08 22:32 -4.43639 -53.16609 35889 ft 475 kts 281°
2026-05-08 22:32 -4.42399 -53.23138 35884 ft 475 kts 281°
2026-05-08 22:33 -4.41165 -53.29623 35887 ft 475 kts 281°
2026-05-08 22:33 -4.39925 -53.36142 35882 ft 475 kts 281°
2026-05-08 22:34 -4.38684 -53.42669 35888 ft 475 kts 281°
2026-05-08 22:34 -4.37444 -53.49190 35885 ft 475 kts 281°
2026-05-08 22:35 -4.36204 -53.55713 35886 ft 475 kts 281°
2026-05-08 22:35 -4.34961 -53.62226 35885 ft 475 kts 281°
2026-05-08 22:36 -4.33707 -53.68748 35882 ft 475 kts 281°
2026-05-08 22:36 -4.32463 -53.75234 35886 ft 475 kts 281°
2026-05-08 22:37 -4.31216 -53.81750 35886 ft 475 kts 281°
2026-05-08 22:37 -4.29970 -53.88258 35887 ft 475 kts 281°
2026-05-08 22:38 -4.28718 -53.94794 35886 ft 475 kts 281°
2026-05-08 22:38 -4.27465 -54.01334 35882 ft 475 kts 281°
2026-05-08 22:39 -4.26216 -54.07854 35886 ft 475 kts 281°
2026-05-08 22:39 -4.24974 -54.14330 35887 ft 475 kts 281°
2026-05-08 22:40 -4.23724 -54.20852 35888 ft 475 kts 281°
2026-05-08 22:40 -4.22470 -54.27390 35885 ft 475 kts 281°
2026-05-08 22:41 -4.21229 -54.33859 35888 ft 475 kts 281°
2026-05-08 22:41 -4.19970 -54.40429 35883 ft 475 kts 281°
2026-05-08 22:42 -4.18726 -54.46913 35886 ft 475 kts 281°
2026-05-08 22:42 -4.17456 -54.53444 35884 ft 475 kts 281°
2026-05-08 22:43 -4.16167 -54.59960 35882 ft 475 kts 281°
2026-05-08 22:43 -4.14887 -54.66450 35879 ft 475 kts 281°
2026-05-08 22:44 -4.13603 -54.72969 35883 ft 475 kts 281°
2026-05-08 22:44 -4.12320 -54.79488 35880 ft 476 kts 281°
2026-05-08 22:45 -4.11036 -54.86008 35881 ft 476 kts 281°
2026-05-08 22:45 -4.09750 -54.92538 35878 ft 476 kts 281°
2026-05-08 22:46 -4.08473 -54.99018 35874 ft 476 kts 281°
2026-05-08 22:46 -4.07186 -55.05556 35875 ft 476 kts 281°
2026-05-08 22:47 -4.05899 -55.12085 35873 ft 475 kts 281°
2026-05-08 22:47 -4.04611 -55.18621 35872 ft 475 kts 281°
2026-05-08 22:48 -4.03326 -55.25150 35873 ft 475 kts 281°
2026-05-08 22:48 -4.02051 -55.31616 35870 ft 475 kts 281°
2026-05-08 22:49 -4.00765 -55.38137 35871 ft 475 kts 281°
2026-05-08 22:49 -3.98845 -55.47916 35869 ft 475 kts 281°
2026-05-08 22:50 -3.97574 -55.54400 35869 ft 475 kts 281°
2026-05-08 22:50 -3.96297 -55.60915 35872 ft 474 kts 281°
2026-05-08 22:51 -3.95020 -55.67434 35868 ft 474 kts 281°
2026-05-08 22:51 -3.93745 -55.73934 35870 ft 474 kts 281°
2026-05-08 22:52 -3.92469 -55.80440 35868 ft 474 kts 281°
2026-05-08 22:52 -3.91203 -55.86891 35869 ft 473 kts 281°
2026-05-08 22:53 -3.89930 -55.93373 35867 ft 473 kts 281°
2026-05-08 22:53 -3.88658 -55.99854 35869 ft 472 kts 281°
2026-05-08 22:54 -3.87382 -56.06346 35868 ft 472 kts 281°
2026-05-08 22:54 -3.86110 -56.12818 35868 ft 472 kts 281°
2026-05-08 22:55 -3.84839 -56.19277 35868 ft 472 kts 281°
2026-05-08 22:55 -3.83564 -56.25758 35866 ft 472 kts 281°
2026-05-08 22:56 -3.82298 -56.32197 35869 ft 472 kts 281°
2026-05-08 22:56 -3.81025 -56.38665 35867 ft 472 kts 281°
2026-05-08 22:57 -3.79751 -56.45130 35868 ft 472 kts 281°
2026-05-08 22:57 -3.78474 -56.51612 35867 ft 472 kts 281°
2026-05-08 22:58 -3.77197 -56.58086 35871 ft 472 kts 280°
2026-05-08 22:58 -3.75922 -56.64554 35868 ft 471 kts 280°
2026-05-08 22:59 -3.74656 -56.70972 35867 ft 471 kts 280°
2026-05-08 22:59 -3.73382 -56.77427 35870 ft 471 kts 280°
2026-05-08 23:00 -3.72109 -56.83878 35868 ft 470 kts 280°
2026-05-08 23:00 -3.70839 -56.90315 35861 ft 470 kts 280°
2026-05-08 23:01 -3.69569 -56.96750 35867 ft 469 kts 280°
2026-05-08 23:01 -3.68298 -57.03190 35874 ft 469 kts 280°
2026-05-08 23:02 -3.67027 -57.09626 35870 ft 469 kts 280°
2026-05-08 23:02 -3.65766 -57.16011 35869 ft 469 kts 280°
2026-05-08 23:03 -3.64498 -57.22434 35868 ft 469 kts 280°
2026-05-08 23:03 -3.63442 -57.27780 35867 ft 469 kts 280°
2026-05-08 23:04 -3.62165 -57.34212 35867 ft 469 kts 280°
2026-05-08 23:04 -3.60875 -57.40640 35868 ft 469 kts 280°
2026-05-08 23:05 -3.59589 -57.47066 35868 ft 469 kts 280°
2026-05-08 23:05 -3.58301 -57.53516 35866 ft 469 kts 280°
2026-05-08 23:06 -3.57017 -57.59955 35870 ft 469 kts 280°
2026-05-08 23:06 -3.55738 -57.66371 35867 ft 469 kts 280°
2026-05-08 23:07 -3.54455 -57.72795 35871 ft 469 kts 280°
2026-05-08 23:07 -3.53179 -57.79185 35874 ft 469 kts 280°
2026-05-08 23:08 -3.51893 -57.85619 35870 ft 469 kts 280°
2026-05-08 23:08 -3.50605 -57.92062 35871 ft 470 kts 280°
2026-05-08 23:09 -3.49319 -57.98492 35869 ft 470 kts 280°
2026-05-08 23:09 -3.48027 -58.04948 35868 ft 470 kts 280°
2026-05-08 23:10 -3.46747 -58.11342 35868 ft 470 kts 280°
2026-05-08 23:10 -3.45468 -58.17732 35869 ft 470 kts 280°
2026-05-08 23:11 -3.44172 -58.24205 35869 ft 470 kts 280°
2026-05-08 23:11 -3.42882 -58.30639 35866 ft 470 kts 280°
2026-05-08 23:12 -3.41592 -58.37077 35868 ft 470 kts 280°
2026-05-08 23:12 -3.40301 -58.43506 35868 ft 470 kts 280°
2026-05-08 23:13 -3.39020 -58.49888 35865 ft 470 kts 280°
2026-05-08 23:13 -3.37727 -58.56326 35865 ft 470 kts 280°
2026-05-08 23:14 -3.36436 -58.62759 35867 ft 470 kts 280°
2026-05-08 23:14 -3.35142 -58.69204 35866 ft 470 kts 280°
2026-05-08 23:15 -3.33847 -58.75650 35866 ft 470 kts 280°
2026-05-08 23:15 -3.32562 -58.82055 35862 ft 470 kts 280°
2026-05-08 23:16 -3.31267 -58.88505 35869 ft 470 kts 280°
2026-05-08 23:16 -3.29975 -58.94946 35865 ft 471 kts 280°
2026-05-08 23:17 -3.28676 -59.01412 35870 ft 471 kts 280°
2026-05-08 23:17 -3.27201 -59.07786 35854 ft 471 kts 282°
2026-05-08 23:18 -3.25631 -59.14231 35853 ft 471 kts 282°
2026-05-08 23:18 -3.24080 -59.20612 35854 ft 472 kts 282°
2026-05-08 23:19 -3.22534 -59.26979 35855 ft 472 kts 282°
2026-05-08 23:19 -3.20981 -59.33388 35852 ft 472 kts 282°
2026-05-08 23:20 -3.19430 -59.39795 35853 ft 472 kts 282°
2026-05-08 23:20 -3.17887 -59.46160 35852 ft 472 kts 282°
2026-05-08 23:21 -3.16355 -59.52620 35855 ft 472 kts 282°
2026-05-08 23:21 -3.14853 -59.59052 35860 ft 472 kts 282°
2026-05-08 23:22 -3.13353 -59.65473 35858 ft 472 kts 282°
2026-05-08 23:22 -3.11860 -59.71859 35861 ft 472 kts 282°
2026-05-08 23:23 -3.10354 -59.78298 35868 ft 473 kts 282°
2026-05-08 23:23 -3.08846 -59.84744 35872 ft 473 kts 282°
2026-05-08 23:24 -3.07342 -59.91178 35875 ft 473 kts 282°
2026-05-08 23:24 -3.05844 -59.97587 35877 ft 473 kts 282°
2026-05-08 23:25 -3.04267 -60.04016 35872 ft 473 kts 285°
2026-05-08 23:25 -3.02145 -60.10287 35877 ft 474 kts 290°
2026-05-08 23:26 -2.99758 -60.16484 35875 ft 474 kts 290°
2026-05-08 23:26 -2.97373 -60.22663 35870 ft 474 kts 290°
2026-05-08 23:27 -2.95003 -60.28816 35863 ft 475 kts 290°
2026-05-08 23:27 -2.92625 -60.34997 35855 ft 475 kts 290°
2026-05-08 23:28 -2.90243 -60.41189 35850 ft 475 kts 290°
2026-05-08 23:28 -2.87865 -60.47375 35850 ft 475 kts 290°
2026-05-08 23:29 -2.85476 -60.53578 35850 ft 475 kts 290°
2026-05-08 23:29 -2.83104 -60.59717 35847 ft 475 kts 290°
2026-05-08 23:30 -2.80710 -60.65919 35850 ft 476 kts 290°
2026-05-08 23:30 -2.78325 -60.72108 35853 ft 476 kts 290°
2026-05-08 23:31 -2.75934 -60.78316 35853 ft 476 kts 290°
2026-05-08 23:31 -2.73539 -60.84530 35854 ft 476 kts 290°
2026-05-08 23:32 -2.71041 -60.90640 35848 ft 476 kts 292°
2026-05-08 23:32 -2.68449 -60.96765 35851 ft 476 kts 291°
2026-05-08 23:33 -2.65864 -61.02917 35854 ft 476 kts 291°
2026-05-08 23:33 -2.63300 -61.09046 35856 ft 476 kts 291°
2026-05-08 23:34 -2.60740 -61.15175 35855 ft 476 kts 291°
2026-05-08 23:34 -2.58189 -61.21275 35852 ft 476 kts 291°
2026-05-08 23:35 -2.55627 -61.27430 35854 ft 476 kts 291°
2026-05-08 23:35 -2.53077 -61.33577 35850 ft 477 kts 291°
2026-05-08 23:36 -2.50530 -61.39720 35852 ft 476 kts 291°
2026-05-08 23:36 -2.47985 -61.45858 35851 ft 476 kts 291°
2026-05-08 23:37 -2.45455 -61.51959 35851 ft 476 kts 291°
2026-05-08 23:37 -2.42902 -61.58115 35852 ft 477 kts 291°
2026-05-08 23:38 -2.40357 -61.64250 35853 ft 477 kts 291°
2026-05-08 23:38 -2.37807 -61.70398 35851 ft 477 kts 291°
2026-05-08 23:39 -2.35258 -61.76541 35853 ft 477 kts 291°
2026-05-08 23:39 -2.32723 -61.82652 35850 ft 477 kts 291°
2026-05-08 23:40 -2.30173 -61.88799 35850 ft 477 kts 291°
2026-05-08 23:40 -2.27618 -61.94958 35851 ft 477 kts 291°
2026-05-08 23:41 -2.25054 -62.01142 35851 ft 477 kts 291°
2026-05-08 23:41 -2.22519 -62.07253 35847 ft 477 kts 291°
2026-05-08 23:42 -2.19961 -62.13401 35851 ft 477 kts 291°
2026-05-08 23:42 -2.17407 -62.19541 35852 ft 477 kts 291°
2026-05-08 23:43 -2.14852 -62.25695 35849 ft 477 kts 291°
2026-05-08 23:43 -2.12301 -62.31840 35850 ft 477 kts 291°
2026-05-08 23:44 -2.09748 -62.37991 35850 ft 477 kts 291°
2026-05-08 23:44 -2.07208 -62.44113 35846 ft 477 kts 291°
2026-05-08 23:45 -2.04655 -62.50269 35850 ft 478 kts 291°
2026-05-08 23:45 -2.02100 -62.56425 35867 ft 481 kts 291°
2026-05-08 23:46 -2.00792 -62.59532 36114 ft 480 kts 292°
2026-05-08 23:46 -1.99454 -62.62657 36519 ft 476 kts 292°
2026-05-08 23:46 -1.98156 -62.65679 36902 ft 473 kts 292°
2026-05-08 23:46 -1.96836 -62.68757 37252 ft 472 kts 292°
2026-05-08 23:47 -1.95555 -62.71747 37552 ft 471 kts 292°
2026-05-08 23:47 -1.94268 -62.74759 37821 ft 470 kts 292°
2026-05-08 23:47 -1.91694 -62.80782 37849 ft 469 kts 292°
2026-05-08 23:48 -1.89121 -62.86806 37848 ft 469 kts 292°
2026-05-08 23:48 -1.86552 -62.92824 37848 ft 469 kts 292°
2026-05-08 23:49 -1.84415 -62.97828 37849 ft 469 kts 292°
2026-05-08 23:49 -1.81830 -63.03884 37851 ft 470 kts 292°
2026-05-08 23:50 -1.79235 -63.09966 37857 ft 476 kts 292°
2026-05-08 23:50 -1.76636 -63.16055 37854 ft 477 kts 292°
2026-05-08 23:51 -1.73998 -63.22171 37851 ft 478 kts 294°
2026-05-08 23:51 -1.70940 -63.28107 37849 ft 479 kts 297°
2026-05-08 23:52 -1.67733 -63.33964 37851 ft 479 kts 297°
2026-05-08 23:52 -1.64535 -63.39806 37849 ft 479 kts 297°
2026-05-08 23:53 -1.61336 -63.45658 37848 ft 479 kts 297°
2026-05-08 23:53 -1.58123 -63.51542 37846 ft 479 kts 297°
2026-05-08 23:54 -1.54912 -63.57422 37536 ft 481 kts 297°
2026-05-08 23:54 -1.53322 -63.60333 37276 ft 482 kts 297°
2026-05-08 23:55 -1.50087 -63.66255 36766 ft 484 kts 297°
2026-05-08 23:55 -1.48472 -63.69212 36514 ft 484 kts 297°
2026-05-08 23:55 -1.46855 -63.72173 36263 ft 485 kts 297°
2026-05-08 23:55 -1.45232 -63.75144 36026 ft 485 kts 297°
2026-05-08 23:56 -1.43606 -63.78121 35795 ft 486 kts 297°
2026-05-08 23:56 -1.41974 -63.81109 35549 ft 487 kts 297°
2026-05-08 23:56 -1.40349 -63.84083 35312 ft 487 kts 297°
2026-05-08 23:56 -1.38727 -63.87052 35083 ft 487 kts 297°
2026-05-08 23:57 -1.37094 -63.90042 34844 ft 488 kts 297°
2026-05-08 23:57 -1.35465 -63.93024 34618 ft 488 kts 297°
2026-05-08 23:57 -1.33826 -63.96022 34388 ft 489 kts 297°
2026-05-08 23:57 -1.32196 -63.99007 34164 ft 489 kts 297°
2026-05-08 23:58 -1.30550 -64.02020 33936 ft 490 kts 297°
2026-05-08 23:58 -1.28764 -64.05289 33667 ft 490 kts 297°
2026-05-08 23:58 -1.27122 -64.08296 33411 ft 491 kts 297°
2026-05-08 23:58 -1.25496 -64.11272 33160 ft 493 kts 297°
2026-05-08 23:59 -1.23854 -64.14278 32901 ft 494 kts 297°
2026-05-08 23:59 -1.22113 -64.17464 32640 ft 495 kts 297°
2026-05-08 23:59 -1.20474 -64.20465 32397 ft 496 kts 297°
2026-05-08 23:59 -1.18810 -64.23510 32146 ft 498 kts 297°
2026-05-09 00:00 -1.17140 -64.26565 31907 ft 499 kts 297°
2026-05-09 00:00 -1.13803 -64.32671 31850 ft 500 kts 297°
2026-05-09 00:01 -1.10451 -64.38803 31847 ft 500 kts 297°
2026-05-09 00:01 -1.07131 -64.44876 31848 ft 500 kts 297°
2026-05-09 00:02 -1.03794 -64.50982 31853 ft 500 kts 297°
2026-05-09 00:02 -1.00438 -64.57124 31851 ft 500 kts 297°
2026-05-09 00:03 -0.97081 -64.63269 31851 ft 499 kts 297°
2026-05-09 00:03 -0.93747 -64.69370 31852 ft 499 kts 297°
2026-05-09 00:04 -0.90425 -64.75449 31850 ft 499 kts 297°
2026-05-09 00:04 -0.87081 -64.81568 31850 ft 499 kts 296°
2026-05-09 00:05 -0.83750 -64.87660 31850 ft 500 kts 296°
2026-05-09 00:05 -0.80398 -64.93794 31851 ft 500 kts 296°
2026-05-09 00:06 -0.77052 -64.99914 31849 ft 500 kts 296°
2026-05-09 00:06 -0.73723 -65.06009 31851 ft 500 kts 296°
2026-05-09 00:07 -0.70380 -65.12130 31854 ft 500 kts 296°
2026-05-09 00:07 -0.67037 -65.18249 31852 ft 499 kts 296°
2026-05-09 00:08 -0.63814 -65.24411 31852 ft 499 kts 295°
2026-05-09 00:08 -0.60627 -65.30607 31853 ft 499 kts 295°
2026-05-09 00:09 -0.57441 -65.36789 31852 ft 499 kts 295°
2026-05-09 00:09 -0.54265 -65.42943 31854 ft 499 kts 295°
2026-05-09 00:10 -0.51069 -65.49129 31854 ft 499 kts 295°
2026-05-09 00:10 -0.47880 -65.55302 31852 ft 500 kts 295°
2026-05-09 00:11 -0.44677 -65.61500 31853 ft 500 kts 295°
2026-05-09 00:11 -0.41472 -65.67700 31853 ft 500 kts 295°
2026-05-09 00:12 -0.38292 -65.73853 31853 ft 500 kts 295°
2026-05-09 00:12 -0.35096 -65.80039 31858 ft 500 kts 295°
2026-05-09 00:13 -0.31901 -65.86221 31855 ft 500 kts 295°
2026-05-09 00:13 -0.28696 -65.92422 31856 ft 500 kts 295°
2026-05-09 00:14 -0.25521 -65.98563 31856 ft 500 kts 295°
2026-05-09 00:14 -0.22306 -66.04783 31856 ft 500 kts 295°
2026-05-09 00:15 -0.19103 -66.10980 31856 ft 500 kts 295°
2026-05-09 00:15 -0.15912 -66.17154 31855 ft 500 kts 295°
2026-05-09 00:16 -0.12702 -66.23364 31859 ft 500 kts 295°
2026-05-09 00:16 -0.09499 -66.29557 31860 ft 500 kts 295°
2026-05-09 00:17 -0.06318 -66.35707 31866 ft 500 kts 295°
2026-05-09 00:17 -0.03113 -66.41905 31863 ft 500 kts 295°
2026-05-09 00:18 0.00102 -66.48122 31863 ft 501 kts 295°
2026-05-09 00:18 0.03305 -66.54318 31865 ft 501 kts 295°
2026-05-09 00:19 0.06512 -66.60521 31868 ft 501 kts 295°
2026-05-09 00:19 0.09724 -66.66735 31868 ft 501 kts 295°
2026-05-09 00:20 0.12931 -66.72941 31867 ft 501 kts 295°
2026-05-09 00:20 0.16122 -66.79114 31870 ft 501 kts 295°
2026-05-09 00:21 0.19332 -66.85325 31868 ft 502 kts 295°
2026-05-09 00:21 0.22546 -66.91543 31870 ft 502 kts 295°
2026-05-09 00:22 0.25751 -66.97743 31873 ft 502 kts 295°
2026-05-09 00:22 0.28978 -67.03988 31872 ft 502 kts 295°
2026-05-09 00:23 0.32195 -67.10211 31871 ft 502 kts 295°
2026-05-09 00:23 0.35403 -67.16418 31872 ft 502 kts 295°
2026-05-09 00:24 0.38609 -67.22621 31870 ft 503 kts 295°
2026-05-09 00:24 0.41826 -67.28845 31873 ft 503 kts 295°
2026-05-09 00:25 0.45045 -67.35073 31872 ft 503 kts 295°
2026-05-09 00:25 0.48263 -67.41299 31872 ft 503 kts 295°
2026-05-09 00:26 0.51487 -67.47537 31872 ft 503 kts 295°
2026-05-09 00:26 0.54692 -67.53739 31873 ft 504 kts 295°
2026-05-09 00:27 0.57918 -67.59983 31875 ft 504 kts 295°
2026-05-09 00:27 0.61148 -67.66234 31872 ft 504 kts 295°
2026-05-09 00:28 0.64374 -67.72477 31867 ft 504 kts 295°
2026-05-09 00:28 0.67599 -67.78718 31868 ft 504 kts 295°
2026-05-09 00:29 0.70802 -67.84916 31870 ft 504 kts 295°
2026-05-09 00:29 0.74029 -67.91164 31870 ft 504 kts 295°
2026-05-09 00:30 0.77263 -67.97423 31877 ft 504 kts 295°
2026-05-09 00:30 0.80494 -68.03677 31874 ft 504 kts 295°
2026-05-09 00:31 0.83722 -68.09926 31877 ft 504 kts 295°
2026-05-09 00:31 0.86947 -68.16169 31878 ft 504 kts 295°
2026-05-09 00:32 0.90144 -68.22358 31876 ft 503 kts 295°
2026-05-09 00:32 0.93371 -68.28606 31876 ft 503 kts 295°
2026-05-09 00:33 0.96596 -68.34850 31877 ft 503 kts 295°
2026-05-09 00:33 0.99807 -68.41067 31876 ft 503 kts 295°
2026-05-09 00:34 1.03036 -68.47321 31877 ft 503 kts 295°
2026-05-09 00:34 1.06252 -68.53549 31878 ft 503 kts 295°
2026-05-09 00:35 1.09471 -68.59781 31880 ft 503 kts 295°
2026-05-09 00:35 1.12686 -68.66009 31878 ft 503 kts 295°
2026-05-09 00:36 1.15901 -68.72237 31881 ft 503 kts 295°
2026-05-09 00:36 1.19100 -68.78433 31878 ft 503 kts 295°
2026-05-09 00:37 1.22316 -68.84664 31877 ft 503 kts 295°
2026-05-09 00:37 1.24988 -68.89841 31879 ft 503 kts 295°
2026-05-09 00:38 1.28215 -68.96092 31881 ft 503 kts 295°
2026-05-09 00:38 1.31440 -69.02340 31886 ft 503 kts 295°
2026-05-09 00:39 1.34662 -69.08585 31882 ft 503 kts 295°
2026-05-09 00:39 1.37885 -69.14830 31881 ft 503 kts 295°
2026-05-09 00:40 1.41086 -69.21035 31882 ft 503 kts 295°
2026-05-09 00:40 1.44304 -69.27271 31884 ft 503 kts 295°
2026-05-09 00:41 1.49130 -69.36627 31886 ft 503 kts 295°
2026-05-09 00:41 1.52348 -69.42868 31887 ft 503 kts 295°
2026-05-09 00:42 1.55565 -69.49108 31886 ft 503 kts 295°
2026-05-09 00:42 1.58789 -69.55361 31887 ft 503 kts 295°
2026-05-09 00:43 1.61977 -69.61548 31888 ft 503 kts 295°
2026-05-09 00:43 1.65195 -69.67794 31887 ft 503 kts 295°
2026-05-09 00:44 1.68465 -69.74145 31891 ft 503 kts 295°
2026-05-09 00:44 1.71702 -69.80393 31889 ft 503 kts 295°
2026-05-09 00:45 1.74985 -69.86607 31892 ft 504 kts 295°
2026-05-09 00:45 1.78271 -69.92832 31889 ft 504 kts 295°
2026-05-09 00:46 1.81544 -69.99046 31892 ft 504 kts 295°
2026-05-09 00:46 1.84801 -70.05237 31894 ft 504 kts 295°
2026-05-09 00:47 1.88095 -70.11501 31894 ft 504 kts 295°
2026-05-09 00:47 1.91347 -70.17687 31896 ft 504 kts 295°
2026-05-09 00:48 1.94615 -70.23902 31890 ft 504 kts 295°
2026-05-09 00:48 1.97883 -70.30119 31892 ft 504 kts 295°
2026-05-09 00:49 2.01167 -70.36366 31892 ft 504 kts 295°
2026-05-09 00:49 2.04436 -70.42586 31893 ft 504 kts 295°
2026-05-09 00:50 2.07706 -70.48810 31892 ft 504 kts 295°
2026-05-09 00:50 2.10974 -70.55030 31892 ft 504 kts 295°
2026-05-09 00:51 2.14249 -70.61264 31891 ft 504 kts 295°
2026-05-09 00:51 2.17490 -70.67435 31891 ft 504 kts 295°
2026-05-09 00:52 2.20765 -70.73674 31896 ft 504 kts 295°
2026-05-09 00:52 2.24032 -70.79900 31897 ft 504 kts 295°
2026-05-09 00:53 2.27303 -70.86139 31898 ft 504 kts 295°
2026-05-09 00:53 2.30573 -70.92373 31897 ft 504 kts 295°
2026-05-09 00:54 2.33828 -70.98598 31896 ft 504 kts 295°
2026-05-09 00:54 2.37079 -71.04830 31896 ft 504 kts 295°
2026-05-09 00:55 2.40331 -71.11069 31898 ft 504 kts 295°
2026-05-09 00:55 2.43584 -71.17313 31900 ft 504 kts 295°
2026-05-09 00:56 2.46838 -71.23560 31901 ft 505 kts 295°
2026-05-09 00:56 2.50094 -71.29811 31900 ft 505 kts 295°
2026-05-09 00:57 2.53344 -71.36052 31897 ft 505 kts 295°
2026-05-09 00:57 2.56575 -71.42257 31900 ft 505 kts 295°
2026-05-09 00:58 2.59832 -71.48512 31904 ft 505 kts 295°
2026-05-09 00:58 2.63093 -71.54777 31902 ft 505 kts 295°
2026-05-09 00:59 2.66342 -71.61020 31900 ft 505 kts 295°
2026-05-09 00:59 2.69599 -71.67279 31900 ft 506 kts 295°
2026-05-09 01:00 2.72860 -71.73547 31902 ft 506 kts 295°
2026-05-09 01:00 2.76092 -71.79759 31898 ft 506 kts 295°
2026-05-09 01:01 2.79351 -71.86025 31902 ft 506 kts 295°
2026-05-09 01:01 2.82609 -71.92290 31905 ft 506 kts 295°
2026-05-09 01:02 2.85867 -71.98557 31906 ft 506 kts 295°
2026-05-09 01:02 2.89143 -72.04859 31906 ft 506 kts 295°
2026-05-09 01:03 2.92378 -72.11086 31910 ft 506 kts 295°
2026-05-09 01:03 2.95640 -72.17361 31912 ft 506 kts 295°
2026-05-09 01:04 2.98906 -72.23649 31917 ft 506 kts 295°
2026-05-09 01:04 3.02163 -72.29922 31924 ft 506 kts 295°
2026-05-09 01:05 3.05397 -72.36155 31936 ft 506 kts 295°
2026-05-09 01:06 3.10287 -72.45583 31946 ft 506 kts 295°
2026-05-09 01:06 3.13763 -72.51740 31951 ft 508 kts 300°
2026-05-09 01:07 3.17874 -72.57572 31958 ft 509 kts 306°
2026-05-09 01:07 3.22352 -72.63030 31966 ft 510 kts 308°
2026-05-09 01:08 3.26901 -72.68505 31973 ft 510 kts 308°
2026-05-09 01:08 3.31442 -72.73985 31983 ft 510 kts 308°
2026-05-09 01:09 3.35963 -72.79450 31986 ft 509 kts 307°
2026-05-09 01:09 3.40500 -72.84938 31994 ft 510 kts 308°
2026-05-09 01:10 3.45027 -72.90417 32004 ft 510 kts 307°
2026-05-09 01:10 3.49554 -72.95895 32008 ft 510 kts 308°
2026-05-09 01:11 3.54088 -73.01385 32018 ft 510 kts 308°
2026-05-09 01:11 3.58599 -73.06846 32027 ft 510 kts 308°
2026-05-09 01:12 3.63189 -73.12404 32031 ft 510 kts 308°
2026-05-09 01:12 3.67763 -73.17945 32040 ft 510 kts 308°
2026-05-09 01:13 3.72298 -73.23438 32049 ft 510 kts 308°
2026-05-09 01:13 3.76791 -73.28882 32053 ft 510 kts 308°
2026-05-09 01:14 3.81351 -73.34408 32063 ft 509 kts 308°
2026-05-09 01:14 3.85872 -73.39888 32073 ft 509 kts 308°
2026-05-09 01:15 3.87369 -73.41702 32073 ft 509 kts 308°
2026-05-09 01:15 3.88472 -73.43040 32067 ft 509 kts 308°
2026-05-09 01:16 3.92982 -73.48509 32034 ft 509 kts 308°
2026-05-09 01:16 3.97504 -73.53993 31997 ft 509 kts 308°
2026-05-09 01:17 4.04254 -73.62180 31936 ft 509 kts 308°
2026-05-09 01:17 4.08761 -73.67649 31913 ft 509 kts 308°
2026-05-09 01:18 4.13269 -73.73120 31942 ft 509 kts 308°
2026-05-09 01:18 4.17804 -73.78625 32002 ft 509 kts 308°
2026-05-09 01:19 4.22320 -73.84106 32095 ft 509 kts 308°
2026-05-09 01:19 4.26841 -73.89599 32193 ft 509 kts 308°
2026-05-09 01:20 4.31363 -73.95092 32308 ft 509 kts 308°
2026-05-09 01:20 4.35755 -74.00427 32321 ft 509 kts 308°
2026-05-09 01:21 4.40255 -74.05895 32322 ft 509 kts 308°
2026-05-09 01:21 4.44781 -74.11398 32321 ft 510 kts 308°
2026-05-09 01:22 4.49318 -74.16916 32324 ft 510 kts 308°
2026-05-09 01:22 4.53076 -74.21489 32322 ft 511 kts 308°
2026-05-09 01:23 4.58350 -74.27910 32315 ft 511 kts 308°
2026-05-09 01:23 4.62869 -74.33435 32298 ft 511 kts 308°
2026-05-09 01:24 4.66625 -74.38090 32275 ft 511 kts 308°
2026-05-09 01:24 4.71111 -74.43662 32238 ft 511 kts 308°
2026-05-09 01:25 4.75559 -74.49185 32185 ft 511 kts 308°
2026-05-09 01:25 4.77889 -74.52078 32054 ft 507 kts 308°
2026-05-09 01:25 4.80108 -74.54832 31570 ft 503 kts 307°
2026-05-09 01:26 4.82320 -74.57579 30707 ft 507 kts 307°
2026-05-09 01:26 4.84565 -74.60369 29669 ft 513 kts 307°
2026-05-09 01:26 4.86819 -74.63173 28451 ft 513 kts 307°
2026-05-09 01:26 4.89118 -74.65898 27566 ft 504 kts 311°
2026-05-09 01:27 4.91511 -74.68382 27323 ft 496 kts 315°
2026-05-09 01:27 4.94048 -74.70704 26890 ft 492 kts 319°
2026-05-09 01:27 4.96703 -74.72896 26431 ft 489 kts 320°
2026-05-09 01:27 4.99347 -74.75028 25966 ft 485 kts 320°
2026-05-09 01:28 5.01975 -74.77138 25493 ft 481 kts 321°
2026-05-09 01:28 5.04578 -74.79232 25043 ft 477 kts 321°
2026-05-09 01:28 5.07160 -74.81315 24572 ft 473 kts 321°
2026-05-09 01:28 5.09706 -74.83371 24111 ft 468 kts 321°
2026-05-09 01:29 5.12247 -74.85428 23650 ft 464 kts 321°
2026-05-09 01:29 5.14766 -74.87468 23164 ft 460 kts 321°
2026-05-09 01:29 5.17246 -74.89474 22700 ft 455 kts 321°
2026-05-09 01:29 5.19722 -74.91431 22238 ft 450 kts 323°
2026-05-09 01:30 5.22281 -74.93245 21795 ft 446 kts 326°
2026-05-09 01:30 5.24843 -74.94910 21357 ft 441 kts 327°
2026-05-09 01:30 5.27459 -74.96585 20929 ft 437 kts 327°
2026-05-09 01:30 5.29981 -74.98198 20518 ft 433 kts 327°
2026-05-09 01:31 5.32530 -74.99829 20122 ft 429 kts 327°
2026-05-09 01:31 5.35034 -75.01435 19728 ft 426 kts 327°
2026-05-09 01:31 5.37519 -75.03031 19302 ft 422 kts 327°
2026-05-09 01:31 5.40000 -75.04626 18910 ft 419 kts 327°
2026-05-09 01:32 5.42455 -75.06204 18506 ft 416 kts 327°
2026-05-09 01:32 5.44900 -75.07777 18066 ft 414 kts 327°
2026-05-09 01:32 5.47302 -75.09323 17635 ft 410 kts 327°
2026-05-09 01:32 5.49703 -75.10870 17224 ft 409 kts 327°
2026-05-09 01:33 5.52139 -75.12438 16905 ft 416 kts 327°
2026-05-09 01:33 5.54573 -75.14005 16512 ft 413 kts 327°
2026-05-09 01:33 5.56998 -75.15566 16099 ft 410 kts 327°
2026-05-09 01:33 5.59395 -75.17108 15676 ft 407 kts 327°
2026-05-09 01:34 5.61783 -75.18645 15241 ft 404 kts 327°
2026-05-09 01:34 5.64139 -75.20162 14816 ft 401 kts 328°
2026-05-09 01:34 5.66476 -75.21667 14388 ft 397 kts 328°
2026-05-09 01:34 5.68330 -75.22861 14091 ft 394 kts 328°
2026-05-09 01:35 5.70589 -75.24399 13986 ft 380 kts 320°
2026-05-09 01:35 5.72301 -75.26319 13963 ft 365 kts 303°
2026-05-09 01:35 5.73371 -75.28587 13807 ft 356 kts 289°
2026-05-09 01:35 5.74105 -75.30938 13646 ft 345 kts 287°
2026-05-09 01:36 5.74775 -75.33223 13495 ft 335 kts 287°
2026-05-09 01:36 5.75441 -75.35445 13339 ft 324 kts 287°
2026-05-09 01:36 5.76090 -75.37551 13128 ft 305 kts 288°
2026-05-09 01:36 5.76713 -75.39513 13052 ft 283 kts 292°
2026-05-09 01:37 5.77712 -75.41101 13028 ft 258 kts 319°
2026-05-09 01:37 5.79164 -75.42022 13002 ft 242 kts 341°
2026-05-09 01:37 5.80791 -75.42309 12747 ft 233 kts 360°
2026-05-09 01:37 5.82390 -75.42276 12567 ft 226 kts
2026-05-09 01:38 5.83935 -75.42207 12441 ft 225 kts
2026-05-09 01:38 5.85511 -75.42157 12312 ft 225 kts
2026-05-09 01:38 5.87075 -75.42133 12039 ft 224 kts
2026-05-09 01:38 5.88635 -75.42127 11768 ft 222 kts
2026-05-09 01:39 5.90185 -75.42131 11476 ft 216 kts
2026-05-09 01:39 5.91672 -75.42140 11232 ft 210 kts
2026-05-09 01:39 5.93123 -75.42150 10980 ft 203 kts
2026-05-09 01:39 5.94516 -75.42160 10734 ft 198 kts
2026-05-09 01:40 5.95880 -75.42170 10518 ft 197 kts
2026-05-09 01:40 5.97252 -75.42179 10315 ft 197 kts
2026-05-09 01:40 5.98626 -75.42190 10103 ft 196 kts
2026-05-09 01:40 5.99996 -75.42200 9845 ft 195 kts
2026-05-09 01:41 6.01356 -75.42210 9603 ft 194 kts
2026-05-09 01:41 6.02679 -75.42220 9351 ft 188 kts
2026-05-09 01:41 6.03971 -75.42229 9111 ft 183 kts
2026-05-09 01:41 6.05247 -75.42236 8891 ft 182 kts
2026-05-09 01:42 6.06517 -75.42243 8682 ft 181 kts
2026-05-09 01:42 6.07775 -75.42252 8469 ft 180 kts
2026-05-09 01:42 6.09017 -75.42261 8232 ft 179 kts
2026-05-09 01:42 6.10265 -75.42270 8005 ft 178 kts
2026-05-09 01:43 6.11507 -75.42278 7753 ft 178 kts
2026-05-09 01:43 6.12747 -75.42286 7498 ft 177 kts
2026-05-09 01:43 6.13987 -75.42295 7208 ft 176 kts
2026-05-09 01:43 6.15193 -75.42305 6984 ft 174 kts
2026-05-09 01:44 6.16253 -75.42312 6985 ft 121 kts 360°
2026-05-09 01:44 6.16924 -75.42315 7025 ft 72 kts 359°
2026-05-09 01:44 6.17278 -75.42318 7032 ft 43 kts 359°
2026-05-09 01:44 6.17489 -75.42319 7031 ft 18 kts 360°
2026-05-09 01:45 6.17569 -75.42356 7033 ft 14 kts 288°
2026-05-09 01:45 6.17570 -75.42469 7028 ft 17 kts 259°
2026-05-09 01:45 6.17509 -75.42532 7029 ft 12 kts 213°
2026-05-09 01:45 6.17430 -75.42584 7029 ft 14 kts 213°
2026-05-09 01:46 6.17357 -75.42623 7024 ft 10 kts 188°
2026-05-09 01:46 6.17283 -75.42621 7027 ft 11 kts 178°
2026-05-09 01:46 6.17204 -75.42619 7024 ft 6 kts 178°
2026-05-09 01:46 6.17169 -75.42619 7027 ft 4 kts 188°
2026-05-09 01:47 6.17154 -75.42628 7026 ft 1 kts 234°
2026-05-09 01:47 6.17153 -75.42630 7027 ft 1 kts 247°
2026-05-09 01:47 6.17153 -75.42647 7025 ft 3 kts 270°
2026-05-09 01:47 6.17153 -75.42668 7025 ft 0 kts 269°